| time (UTC) | temp F | wind direction | speed MPH | gust MPH | rain 1hr in | rain 24hr in | rain mn in | humidity % | barometer mb |
| 20260904023316 | 65 | 181 | 0.0 | 3.0 | 0.00 | 0.00 | 0.00 | 62 | 1018.2 |
| 20260904023217 | 65 | 186 | 0.0 | 7.0 | 0.00 | 0.00 | 0.00 | 62 | 1018.4 |
| 20260904023116 | 65 | 199 | 2.0 | 7.0 | 0.00 | 0.00 | 0.00 | 62 | 1018.4 |
| 20260904023017 | 65 | 189 | 1.0 | 7.0 | 0.00 | 0.00 | 0.00 | 62 | 1018.5 |
| 20260904022916 | 65 | 194 | 1.0 | 7.0 | 0.00 | 0.00 | 0.00 | 62 | 1018.4 |
| 20260904022817 | 65 | 201 | 2.0 | 7.0 | 0.00 | 0.00 | 0.00 | 62 | 1018.5 |
| 20260904022716 | 65 | 193 | 1.0 | 7.0 | 0.00 | 0.00 | 0.00 | 62 | 1018.4 |
| 20260904022617 | 65 | 197 | 1.0 | 7.0 | 0.00 | 0.00 | 0.00 | 62 | 1018.5 |
| 20260904022516 | 65 | 193 | 1.0 | 7.0 | 0.00 | 0.00 | 0.00 | 62 | 1018.2 |
| 20260904022417 | 65 | 192 | 1.0 | 7.0 | 0.00 | 0.00 | 0.00 | 62 | 1018.5 |
| 20260904022317 | 65 | 194 | 0.0 | 7.0 | 0.00 | 0.00 | 0.00 | 62 | 1018.4 |
| 20260904022217 | 65 | 200 | 4.0 | 7.0 | 0.00 | 0.00 | 0.00 | 62 | 1018.4 |
| 20260904022116 | 65 | 194 | 2.0 | 3.0 | 0.00 | 0.00 | 0.00 | 62 | 1018.5 |
| 20260904022016 | 65 | 190 | 1.0 | 3.0 | 0.00 | 0.00 | 0.00 | 62 | 1018.5 |
| 20260904021917 | 65 | 190 | 2.0 | 3.0 | 0.00 | 0.00 | 0.00 | 62 | 1018.5 |
| 20260904021816 | 65 | 181 | 0.0 | 2.0 | 0.00 | 0.00 | 0.00 | 62 | 1018.3 |
| 20260904021716 | 65 | 181 | 0.0 | 2.0 | 0.00 | 0.00 | 0.00 | 62 | 1018.4 |
| 20260904021617 | 65 | 178 | 0.0 | 2.0 | 0.00 | 0.00 | 0.00 | 62 | 1018.3 |
| 20260904021516 | 65 | 175 | 0.0 | 2.0 | 0.00 | 0.00 | 0.00 | 62 | 1018.6 |
| 20260904021417 | 65 | 173 | 0.0 | 2.0 | 0.00 | 0.00 | 0.00 | 62 | 1018.5 |
| 20260904021316 | 65 | 169 | 0.0 | 2.0 | 0.00 | 0.00 | 0.00 | 62 | 1018.1 |
| 20260904021216 | 65 | 164 | 0.0 | 2.0 | 0.00 | 0.00 | 0.00 | 62 | 1018.4 |
| 20260904021117 | 65 | 160 | 1.0 | 2.0 | 0.00 | 0.00 | 0.00 | 62 | 1018.3 |
| 20260904021017 | 65 | 153 | 0.0 | 1.0 | 0.00 | 0.00 | 0.00 | 61 | 1018.3 |
| 20260904020916 | 65 | 148 | 0.0 | 1.0 | 0.00 | 0.00 | 0.00 | 61 | 1018.5 |
| 20260904020816 | 65 | 150 | 0.0 | 1.0 | 0.00 | 0.00 | 0.00 | 61 | 1018.4 |
| 20260904020718 | 65 | 148 | 0.0 | 2.0 | 0.00 | 0.00 | 0.00 | 62 | 1018.4 |
| 20260904020617 | 65 | 49 | 0.0 | 5.0 | 0.00 | 0.00 | 0.00 | 61 | 1018.4 |
| 20260904020516 | 65 | 84 | 0.0 | 5.0 | 0.00 | 0.00 | 0.00 | 61 | 1018.4 |
| 20260904020416 | 65 | 60 | 0.0 | 5.0 | 0.00 | 0.00 | 0.00 | 61 | 1018.3 |
| 20260904020317 | 65 | 12 | 0.0 | 5.0 | 0.00 | 0.00 | 0.00 | 61 | 1018.5 |
| 20260904020216 | 65 | 213 | 0.0 | 5.0 | 0.00 | 0.00 | 0.00 | 61 | 1018.4 |
| 20260904020117 | 65 | 178 | 0.0 | 5.0 | 0.00 | 0.00 | 0.00 | 61 | 1018.5 |
| 20260904020017 | 65 | 166 | 0.0 | 5.0 | 0.00 | 0.00 | 0.00 | 61 | 1018.4 |
| 20260904015916 | 65 | 171 | 0.0 | 5.0 | 0.00 | 0.00 | 0.00 | 61 | 1018.6 |
| 20260904015817 | 65 | 169 | 0.0 | 5.0 | 0.00 | 0.00 | 0.00 | 61 | 1018.5 |
| 20260904015717 | 65 | 155 | 1.0 | 5.0 | 0.00 | 0.00 | 0.00 | 61 | 1018.6 |
| 20260904015616 | 65 | 165 | 3.0 | 5.0 | 0.00 | 0.00 | 0.00 | 61 | 1018.6 |
| 20260904015517 | 65 | 178 | 1.0 | 2.0 | 0.00 | 0.00 | 0.00 | 61 | 1018.6 |
| 20260904015416 | 65 | 168 | 0.0 | 2.0 | 0.00 | 0.00 | 0.00 | 61 | 1018.5 |
| 20260904015316 | 65 | 157 | 0.0 | 2.0 | 0.00 | 0.00 | 0.00 | 61 | 1018.4 |
| 20260904015217 | 65 | 148 | 1.0 | 2.0 | 0.00 | 0.00 | 0.00 | 61 | 1018.5 |
| 20260904015116 | 65 | 149 | 0.0 | 2.0 | 0.00 | 0.00 | 0.00 | 61 | 1018.3 |
| 20260904015017 | 65 | 148 | 0.0 | 3.0 | 0.00 | 0.00 | 0.00 | 61 | 1018.5 |
| 20260904014916 | 65 | 145 | 0.0 | 3.0 | 0.00 | 0.00 | 0.00 | 61 | 1018.3 |
| 20260904014817 | 65 | 143 | 0.0 | 3.0 | 0.00 | 0.00 | 0.00 | 61 | 1018.5 |
| 20260904014716 | 65 | 143 | 0.0 | 3.0 | 0.00 | 0.00 | 0.00 | 61 | 1018.4 |
| 20260904014618 | 65 | 145 | 0.0 | 3.0 | 0.00 | 0.00 | 0.00 | 61 | 1018.4 |
| 20260904014516 | 65 | 141 | 1.0 | 3.0 | 0.00 | 0.00 | 0.00 | 61 | 1018.5 |
| 20260904014416 | 65 | 139 | 0.0 | 3.0 | 0.00 | 0.00 | 0.00 | 61 | 1018.5 |
| 20260904014317 | 65 | 140 | 1.0 | 3.0 | 0.00 | 0.00 | 0.00 | 61 | 1018.4 |
| 20260904014217 | 65 | 149 | 0.0 | 3.0 | 0.00 | 0.00 | 0.00 | 61 | 1018.6 |
| 20260904014116 | 65 | 148 | 1.0 | 3.0 | 0.00 | 0.00 | 0.00 | 61 | 1018.5 |
| 20260904014017 | 65 | 148 | 2.0 | 3.0 | 0.00 | 0.00 | 0.00 | 61 | 1018.4 |
| 20260904013916 | 65 | 151 | 0.0 | 3.0 | 0.00 | 0.00 | 0.00 | 61 | 1018.7 |
| 20260904013817 | 65 | 153 | 0.0 | 3.0 | 0.00 | 0.00 | 0.00 | 61 | 1018.5 |
| 20260904013717 | 65 | 153 | 1.0 | 3.0 | 0.00 | 0.00 | 0.00 | 61 | 1018.5 |
| 20260904013616 | 65 | 149 | 1.0 | 3.0 | 0.00 | 0.00 | 0.00 | 61 | 1018.4 |
| 20260904013516 | 65 | 150 | 1.0 | 3.0 | 0.00 | 0.00 | 0.00 | 61 | 1018.4 |
| 20260904013417 | 65 | 157 | 1.0 | 3.0 | 0.00 | 0.00 | 0.00 | 61 | 1018.5 |
| 20260904013316 | 65 | 157 | 0.0 | 3.0 | 0.00 | 0.00 | 0.00 | 61 | 1018.6 |
| 20260904013217 | 65 | 153 | 1.0 | 3.0 | 0.00 | 0.00 | 0.00 | 61 | 1018.4 |
| 20260904013116 | 65 | 157 | 1.0 | 3.0 | 0.00 | 0.00 | 0.00 | 61 | 1018.5 |
| 20260904013016 | 65 | 158 | 0.0 | 2.0 | 0.00 | 0.00 | 0.00 | 61 | 1018.4 |
| 20260904012916 | 65 | 160 | 0.0 | 3.0 | 0.00 | 0.00 | 0.00 | 61 | 1018.6 |
| 20260904012817 | 65 | 156 | 0.0 | 3.0 | 0.00 | 0.00 | 0.00 | 61 | 1018.5 |
| 20260904012717 | 65 | 155 | 0.0 | 3.0 | 0.00 | 0.00 | 0.00 | 61 | 1018.4 |
| 20260904012616 | 65 | 155 | 0.0 | 3.0 | 0.00 | 0.00 | 0.00 | 61 | 1018.7 |
| 20260904012517 | 65 | 153 | 1.0 | 3.0 | 0.00 | 0.00 | 0.00 | 61 | 1018.6 |
| 20260904012417 | 65 | 148 | 1.0 | 3.0 | 0.00 | 0.00 | 0.00 | 61 | 1018.6 |
| 20260904012316 | 65 | 149 | 0.0 | 3.0 | 0.00 | 0.00 | 0.00 | 61 | 1018.4 |
| 20260904012217 | 65 | 144 | 0.0 | 3.0 | 0.00 | 0.00 | 0.00 | 60 | 1018.5 |
| 20260904012116 | 65 | 140 | 0.0 | 3.0 | 0.00 | 0.00 | 0.00 | 60 | 1018.6 |
| 20260904012017 | 65 | 142 | 0.0 | 3.0 | 0.00 | 0.00 | 0.00 | 60 | 1018.7 |
| 20260904011917 | 65 | 141 | 0.0 | 3.0 | 0.00 | 0.00 | 0.00 | 60 | 1018.5 |
| 20260904011817 | 65 | 141 | 0.0 | 3.0 | 0.00 | 0.00 | 0.00 | 60 | 1018.5 |
| 20260904011716 | 65 | 141 | 0.0 | 3.0 | 0.00 | 0.00 | 0.00 | 60 | 1018.6 |
| 20260904011617 | 65 | 141 | 0.0 | 3.0 | 0.00 | 0.00 | 0.00 | 60 | 1018.7 |
| 20260904011516 | 65 | 140 | 0.0 | 3.0 | 0.00 | 0.00 | 0.00 | 60 | 1018.6 |
| 20260904011416 | 65 | 140 | 0.0 | 3.0 | 0.00 | 0.00 | 0.00 | 60 | 1018.6 |
| 20260904011317 | 65 | 139 | 0.0 | 3.0 | 0.00 | 0.00 | 0.00 | 60 | 1018.6 |
| 20260904011217 | 65 | 141 | 1.0 | 3.0 | 0.00 | 0.00 | 0.00 | 60 | 1018.7 |
| 20260904011116 | 65 | 145 | 2.0 | 3.0 | 0.00 | 0.00 | 0.00 | 60 | 1018.6 |
| 20260904011016 | 65 | 144 | 1.0 | 3.0 | 0.00 | 0.00 | 0.00 | 60 | 1018.4 |
| 20260904010916 | 65 | 141 | 0.0 | 3.0 | 0.00 | 0.00 | 0.00 | 60 | 1018.5 |
| 20260904010817 | 65 | 141 | 0.0 | 3.0 | 0.00 | 0.00 | 0.00 | 60 | 1018.7 |
| 20260904010716 | 65 | 145 | 1.0 | 3.0 | 0.00 | 0.00 | 0.00 | 60 | 1018.4 |
| 20260904010617 | 65 | 146 | 1.0 | 3.0 | 0.00 | 0.00 | 0.00 | 60 | 1018.6 |
| 20260904010517 | 65 | 146 | 1.0 | 3.0 | 0.00 | 0.00 | 0.00 | 60 | 1018.6 |
| 20260904010416 | 65 | 145 | 1.0 | 4.0 | 0.00 | 0.00 | 0.00 | 60 | 1018.3 |
| 20260904010317 | 66 | 144 | 1.0 | 4.0 | 0.00 | 0.00 | 0.00 | 60 | 1018.5 |
| 20260904010217 | 66 | 147 | 1.0 | 4.0 | 0.00 | 0.00 | 0.00 | 60 | 1018.5 |
| 20260904010117 | 66 | 145 | 0.0 | 4.0 | 0.00 | 0.00 | 0.00 | 60 | 1018.5 |
| 20260904010017 | 66 | 148 | 0.0 | 4.0 | 0.00 | 0.00 | 0.00 | 60 | 1018.3 |
| 20260904005917 | 66 | 152 | 1.0 | 4.0 | 0.00 | 0.00 | 0.00 | 60 | 1018.5 |
| 20260904005817 | 66 | 151 | 1.0 | 6.0 | 0.00 | 0.00 | 0.00 | 60 | 1018.5 |
| 20260904005717 | 66 | 149 | 2.0 | 6.0 | 0.00 | 0.00 | 0.00 | 60 | 1018.5 |
| 20260904005618 | 66 | 148 | 0.0 | 6.0 | 0.00 | 0.00 | 0.00 | 60 | 1018.6 |
| 20260904005517 | 65 | 147 | 2.0 | 6.0 | 0.00 | 0.00 | 0.00 | 60 | 1018.6 |
| 20260904005417 | 65 | 148 | 3.0 | 6.0 | 0.00 | 0.00 | 0.00 | 60 | 1018.5 |
| 20260904005316 | 65 | 151 | 2.0 | 6.0 | 0.00 | 0.00 | 0.00 | 60 | 1018.5 |
| 20260904005217 | 65 | 151 | 2.0 | 6.0 | 0.00 | 0.00 | 0.00 | 60 | 1018.5 |
| 20260904005116 | 65 | 155 | 0.0 | 6.0 | 0.00 | 0.00 | 0.00 | 60 | 1018.6 |
| 20260904005016 | 65 | 153 | 1.0 | 6.0 | 0.00 | 0.00 | 0.00 | 60 | 1018.5 |
| 20260904004916 | 65 | 148 | 1.0 | 6.0 | 0.00 | 0.00 | 0.00 | 60 | 1018.6 |
| 20260904004816 | 65 | 148 | 3.0 | 6.0 | 0.00 | 0.00 | 0.00 | 60 | 1018.8 |
| 20260904004717 | 65 | 148 | 0.0 | 3.0 | 0.00 | 0.00 | 0.00 | 60 | 1018.6 |
| 20260904004617 | 65 | 150 | 1.0 | 3.0 | 0.00 | 0.00 | 0.00 | 60 | 1018.5 |
| 20260904004516 | 65 | 150 | 1.0 | 3.0 | 0.00 | 0.00 | 0.00 | 60 | 1018.5 |
| 20260904004416 | 65 | 150 | 1.0 | 3.0 | 0.00 | 0.00 | 0.00 | 60 | 1018.7 |
| 20260904004317 | 65 | 147 | 1.0 | 3.0 | 0.00 | 0.00 | 0.00 | 60 | 1018.7 |
| 20260904004217 | 65 | 146 | 2.0 | 3.0 | 0.00 | 0.00 | 0.00 | 60 | 1018.8 |
| 20260904004116 | 65 | 141 | 2.0 | 3.0 | 0.00 | 0.00 | 0.00 | 60 | 1018.8 |
| 20260904004016 | 65 | 134 | 0.0 | 3.0 | 0.00 | 0.00 | 0.00 | 61 | 1018.8 |
| 20260904003916 | 65 | 132 | 0.0 | 3.0 | 0.00 | 0.00 | 0.00 | 61 | 1018.8 |
| 20260904003816 | 65 | 132 | 1.0 | 3.0 | 0.00 | 0.00 | 0.00 | 61 | 1018.6 |
| 20260904003717 | 65 | 132 | 2.0 | 3.0 | 0.00 | 0.00 | 0.00 | 61 | 1018.8 |
| 20260904003617 | 65 | 133 | 2.0 | 3.0 | 0.00 | 0.00 | 0.00 | 61 | 1018.7 |
| 20260904003516 | 65 | 135 | 2.0 | 3.0 | 0.00 | 0.00 | 0.00 | 61 | 1018.8 |
| 20260904003417 | 65 | 138 | 1.0 | 3.0 | 0.00 | 0.00 | 0.00 | 61 | 1018.7 |
| 20260904003317 | 65 | 140 | 1.0 | 3.0 | 0.00 | 0.00 | 0.00 | 61 | 1018.8 |
| 20260904003216 | 65 | 141 | 0.0 | 3.0 | 0.00 | 0.00 | 0.00 | 61 | 1018.7 |
| 20260904003118 | 65 | 138 | 2.0 | 3.0 | 0.00 | 0.00 | 0.00 | 61 | 1018.7 |
| 20260904003016 | 65 | 146 | 1.0 | 3.0 | 0.00 | 0.00 | 0.00 | 61 | 1018.7 |
| 20260904002916 | 65 | 152 | 0.0 | 3.0 | 0.00 | 0.00 | 0.00 | 61 | 1018.7 |
| 20260904002817 | 65 | 153 | 1.0 | 3.0 | 0.00 | 0.00 | 0.00 | 61 | 1019.0 |
| 20260904002717 | 65 | 154 | 0.0 | 3.0 | 0.00 | 0.00 | 0.00 | 61 | 1018.7 |
| 20260904002616 | 65 | 151 | 0.0 | 3.0 | 0.00 | 0.00 | 0.00 | 61 | 1018.7 |
| 20260904002516 | 65 | 152 | 0.0 | 3.0 | 0.00 | 0.00 | 0.00 | 61 | 1018.6 |
| 20260904002416 | 65 | 152 | 0.0 | 3.0 | 0.00 | 0.00 | 0.00 | 61 | 1018.6 |
| 20260904002317 | 65 | 152 | 1.0 | 3.0 | 0.00 | 0.00 | 0.00 | 61 | 1018.7 |
| 20260904002216 | 65 | 152 | 1.0 | 3.0 | 0.00 | 0.00 | 0.00 | 61 | 1018.8 |
| 20260904002116 | 65 | 156 | 2.0 | 3.0 | 0.00 | 0.00 | 0.00 | 61 | 1018.6 |
| 20260904002017 | 65 | 158 | 1.0 | 3.0 | 0.00 | 0.00 | 0.00 | 61 | 1018.8 |
| 20260904001916 | 65 | 157 | 2.0 | 3.0 | 0.00 | 0.00 | 0.00 | 61 | 1018.7 |
| 20260904001817 | 64 | 155 | 0.0 | 3.0 | 0.00 | 0.00 | 0.00 | 61 | 1018.8 |
| 20260904001717 | 64 | 155 | 2.0 | 3.0 | 0.00 | 0.00 | 0.00 | 61 | 1018.9 |
| 20260904001616 | 64 | 159 | 1.0 | 3.0 | 0.00 | 0.00 | 0.00 | 61 | 1018.8 |
| 20260904001516 | 64 | 160 | 0.0 | 3.0 | 0.00 | 0.00 | 0.00 | 62 | 1018.6 |
| 20260904001417 | 64 | 162 | 2.0 | 3.0 | 0.00 | 0.00 | 0.00 | 62 | 1018.7 |
| 20260904001316 | 64 | 165 | 2.0 | 3.0 | 0.00 | 0.00 | 0.00 | 62 | 1018.7 |
| 20260904001217 | 64 | 167 | 0.0 | 3.0 | 0.00 | 0.00 | 0.00 | 62 | 1018.8 |
| 20260904001117 | 64 | 167 | 0.0 | 3.0 | 0.00 | 0.00 | 0.00 | 62 | 1018.9 |
| 20260904001016 | 64 | 169 | 0.0 | 3.0 | 0.00 | 0.00 | 0.00 | 62 | 1018.8 |
| 20260904000917 | 64 | 169 | 0.0 | 3.0 | 0.00 | 0.00 | 0.00 | 62 | 1018.7 |
| 20260904000817 | 64 | 171 | 0.0 | 3.0 | 0.00 | 0.00 | 0.00 | 62 | 1018.8 |
| 20260904000717 | 64 | 168 | 2.0 | 4.0 | 0.00 | 0.00 | 0.00 | 62 | 1018.8 |
| 20260904000616 | 64 | 165 | 0.0 | 4.0 | 0.00 | 0.00 | 0.00 | 62 | 1018.8 |
| 20260904000517 | 64 | 160 | 0.0 | 4.0 | 0.00 | 0.00 | 0.00 | 62 | 1018.9 |
| 20260904000417 | 64 | 155 | 0.0 | 4.0 | 0.00 | 0.00 | 0.00 | 62 | 1018.8 |
| 20260904000318 | 64 | 150 | 0.0 | 4.0 | 0.00 | 0.00 | 0.00 | 62 | 1019.1 |
| 20260904000218 | 64 | 146 | 0.0 | 4.0 | 0.00 | 0.00 | 0.00 | 62 | 1018.9 |
| 20260904000118 | 64 | 142 | 0.0 | 4.0 | 0.00 | 0.00 | 0.00 | 62 | 1018.8 |
| 20260904000016 | 64 | 138 | 0.0 | 4.0 | 0.00 | 0.00 | 0.00 | 62 | 1018.9 |
| 20260903235916 | 64 | 137 | 1.0 | 4.0 | 0.00 | 0.00 | 0.00 | 62 | 1018.8 |
| 20260903235817 | 64 | 135 | 2.0 | 4.0 | 0.00 | 0.00 | 0.00 | 62 | 1019.0 |
| 20260903235716 | 64 | 141 | 3.0 | 4.0 | 0.00 | 0.00 | 0.00 | 62 | 1018.9 |
| 20260903235617 | 64 | 142 | 0.0 | 4.0 | 0.00 | 0.00 | 0.00 | 62 | 1019.0 |
| 20260903235517 | 64 | 142 | 2.0 | 4.0 | 0.00 | 0.00 | 0.00 | 62 | 1018.9 |
| 20260903235417 | 64 | 139 | 2.0 | 4.0 | 0.00 | 0.00 | 0.00 | 62 | 1019.0 |
| 20260903235317 | 64 | 143 | 2.0 | 4.0 | 0.00 | 0.00 | 0.00 | 62 | 1018.9 |
| 20260903235216 | 64 | 148 | 2.0 | 4.0 | 0.00 | 0.00 | 0.00 | 62 | 1018.9 |
| 20260903235117 | 64 | 153 | 2.0 | 4.0 | 0.00 | 0.00 | 0.00 | 62 | 1019.0 |
| 20260903235016 | 64 | 154 | 1.0 | 4.0 | 0.00 | 0.00 | 0.00 | 62 | 1018.9 |
| 20260903234916 | 64 | 157 | 1.0 | 4.0 | 0.00 | 0.00 | 0.00 | 62 | 1018.8 |
| 20260903234817 | 64 | 161 | 1.0 | 4.0 | 0.00 | 0.00 | 0.00 | 63 | 1019.0 |
| 20260903234716 | 64 | 161 | 1.0 | 3.0 | 0.00 | 0.00 | 0.00 | 63 | 1019.0 |
| 20260903234617 | 64 | 159 | 1.0 | 3.0 | 0.00 | 0.00 | 0.00 | 63 | 1019.0 |
| 20260903234516 | 64 | 162 | 0.0 | 4.0 | 0.00 | 0.00 | 0.00 | 63 | 1018.9 |
| 20260903234417 | 64 | 171 | 2.0 | 4.0 | 0.00 | 0.00 | 0.00 | 63 | 1019.0 |
| 20260903234317 | 64 | 166 | 1.0 | 4.0 | 0.00 | 0.00 | 0.00 | 63 | 1019.0 |
| 20260903234216 | 64 | 161 | 0.0 | 4.0 | 0.00 | 0.00 | 0.00 | 63 | 1019.1 |
| 20260903234117 | 64 | 158 | 2.0 | 4.0 | 0.00 | 0.00 | 0.00 | 63 | 1019.2 |
| 20260903234016 | 64 | 154 | 2.0 | 4.0 | 0.00 | 0.00 | 0.00 | 63 | 1019.1 |
| 20260903233916 | 64 | 153 | 2.0 | 4.0 | 0.00 | 0.00 | 0.00 | 63 | 1019.1 |
| 20260903233818 | 64 | 146 | 1.0 | 4.0 | 0.00 | 0.00 | 0.00 | 63 | 1019.2 |
| 20260903233717 | 64 | 146 | 0.0 | 4.0 | 0.00 | 0.00 | 0.00 | 63 | 1019.2 |
| 20260903233616 | 64 | 144 | 1.0 | 4.0 | 0.00 | 0.00 | 0.00 | 63 | 1019.1 |
| 20260903233517 | 64 | 142 | 2.0 | 4.0 | 0.00 | 0.00 | 0.00 | 63 | 1019.1 |
| 20260903233416 | 64 | 135 | 2.0 | 3.0 | 0.00 | 0.00 | 0.00 | 63 | 1019.0 |
| 20260903233317 | 64 | 137 | 1.0 | 3.0 | 0.00 | 0.00 | 0.00 | 63 | 1019.0 |
| 20260903233216 | 64 | 140 | 1.0 | 3.0 | 0.00 | 0.00 | 0.00 | 63 | 1019.0 |
| 20260903233117 | 64 | 144 | 3.0 | 3.0 | 0.00 | 0.00 | 0.00 | 63 | 1019.1 |
| 20260903233017 | 64 | 153 | 0.0 | 3.0 | 0.00 | 0.00 | 0.00 | 63 | 1019.2 |
| 20260903232917 | 64 | 151 | 0.0 | 3.0 | 0.00 | 0.00 | 0.00 | 63 | 1019.3 |
| 20260903232816 | 64 | 151 | 1.0 | 3.0 | 0.00 | 0.00 | 0.00 | 63 | 1019.1 |
| 20260903232717 | 64 | 147 | 0.0 | 3.0 | 0.00 | 0.00 | 0.00 | 63 | 1019.4 |
| 20260903232616 | 64 | 151 | 3.0 | 3.0 | 0.00 | 0.00 | 0.00 | 63 | 1019.3 |
| 20260903232517 | 64 | 155 | 3.0 | 3.0 | 0.00 | 0.00 | 0.00 | 63 | 1019.3 |
| 20260903232417 | 64 | 154 | 1.0 | 3.0 | 0.00 | 0.00 | 0.00 | 63 | 1019.3 |
| 20260903232317 | 64 | 152 | 1.0 | 5.0 | 0.00 | 0.00 | 0.00 | 63 | 1019.2 |
| 20260903232216 | 64 | 157 | 2.0 | 5.0 | 0.00 | 0.00 | 0.00 | 63 | 1019.3 |
| 20260903232117 | 64 | 156 | 2.0 | 5.0 | 0.00 | 0.00 | 0.00 | 63 | 1019.1 |
| 20260903232017 | 64 | 150 | 1.0 | 5.0 | 0.00 | 0.00 | 0.00 | 63 | 1019.4 |
| 20260903231916 | 64 | 149 | 1.0 | 5.0 | 0.00 | 0.00 | 0.00 | 63 | 1019.2 |
| 20260903231816 | 64 | 149 | 0.0 | 5.0 | 0.00 | 0.00 | 0.00 | 63 | 1019.3 |
| 20260903231716 | 64 | 150 | 1.0 | 5.0 | 0.00 | 0.00 | 0.00 | 64 | 1019.3 |
| 20260903231617 | 64 | 150 | 1.0 | 5.0 | 0.00 | 0.00 | 0.00 | 64 | 1019.2 |
| 20260903231516 | 64 | 147 | 1.0 | 5.0 | 0.00 | 0.00 | 0.00 | 64 | 1019.2 |
| 20260903231417 | 64 | 147 | 2.0 | 5.0 | 0.00 | 0.00 | 0.00 | 64 | 1019.2 |
| 20260903231316 | 63 | 146 | 2.0 | 5.0 | 0.00 | 0.00 | 0.00 | 68 | 1019.3 |
| 20260903231217 | 63 | 141 | 3.0 | 5.0 | 0.00 | 0.00 | 0.00 | 68 | 1019.3 |
| 20260903231116 | 63 | 140 | 2.0 | 3.0 | 0.00 | 0.00 | 0.00 | 68 | 1019.3 |
| 20260903231016 | 63 | 140 | 2.0 | 3.0 | 0.00 | 0.00 | 0.00 | 68 | 1019.2 |
| 20260903230917 | 63 | 143 | 2.0 | 3.0 | 0.00 | 0.00 | 0.00 | 68 | 1019.4 |
| 20260903230816 | 63 | 142 | 1.0 | 3.0 | 0.00 | 0.00 | 0.00 | 68 | 1019.2 |
| 20260903230717 | 63 | 142 | 2.0 | 3.0 | 0.00 | 0.00 | 0.00 | 68 | 1019.3 |
| 20260903230617 | 63 | 138 | 1.0 | 3.0 | 0.00 | 0.00 | 0.00 | 68 | 1019.5 |
| 20260903230516 | 63 | 140 | 1.0 | 3.0 | 0.00 | 0.00 | 0.00 | 68 | 1019.4 |
| 20260903230417 | 63 | 140 | 1.0 | 3.0 | 0.00 | 0.00 | 0.00 | 68 | 1019.3 |
| 20260903230317 | 63 | 140 | 1.0 | 3.0 | 0.00 | 0.00 | 0.00 | 68 | 1019.2 |
| 20260903230218 | 63 | 148 | 1.0 | 3.0 | 0.00 | 0.00 | 0.00 | 68 | 1019.4 |
| 20260903230116 | 63 | 149 | 1.0 | 3.0 | 0.00 | 0.00 | 0.00 | 68 | 1019.3 |
| 20260903230017 | 63 | 149 | 1.0 | 3.0 | 0.00 | 0.00 | 0.00 | 68 | 1019.2 |
| 20260903225917 | 63 | 149 | 1.0 | 3.0 | 0.00 | 0.00 | 0.00 | 68 | 1019.4 |
| 20260903225818 | 63 | 149 | 0.0 | 3.0 | 0.00 | 0.00 | 0.00 | 68 | 1019.5 |
| 20260903225717 | 63 | 148 | 1.0 | 3.0 | 0.00 | 0.00 | 0.00 | 68 | 1019.3 |
| 20260903225616 | 64 | 149 | 0.0 | 3.0 | 0.00 | 0.00 | 0.00 | 64 | 1019.4 |
| 20260903225517 | 64 | 149 | 0.0 | 3.0 | 0.00 | 0.00 | 0.00 | 64 | 1019.4 |
| 20260903225417 | 64 | 148 | 0.0 | 3.0 | 0.00 | 0.00 | 0.00 | 64 | 1019.4 |
| 20260903225316 | 64 | 148 | 0.0 | 3.0 | 0.00 | 0.00 | 0.00 | 64 | 1019.4 |
| 20260903225217 | 63 | 145 | 2.0 | 3.0 | 0.00 | 0.00 | 0.00 | 69 | 1019.4 |
| 20260903225117 | 63 | 145 | 1.0 | 3.0 | 0.00 | 0.00 | 0.00 | 69 | 1019.3 |
| 20260903225016 | 63 | 146 | 2.0 | 3.0 | 0.00 | 0.00 | 0.00 | 69 | 1019.4 |
| 20260903224917 | 63 | 145 | 1.0 | 3.0 | 0.00 | 0.00 | 0.00 | 69 | 1019.4 |
| 20260903224816 | 63 | 143 | 1.0 | 3.0 | 0.00 | 0.00 | 0.00 | 69 | 1019.4 |
| 20260903224717 | 63 | 146 | 1.0 | 3.0 | 0.00 | 0.00 | 0.00 | 69 | 1019.5 |
| 20260903224618 | 63 | 146 | 2.0 | 3.0 | 0.00 | 0.00 | 0.00 | 69 | 1019.4 |
| 20260903224517 | 63 | 148 | 0.0 | 3.0 | 0.00 | 0.00 | 0.00 | 69 | 1019.4 |
| 20260903224416 | 63 | 147 | 0.0 | 3.0 | 0.00 | 0.00 | 0.00 | 69 | 1019.4 |
| 20260903224317 | 63 | 148 | 0.0 | 3.0 | 0.00 | 0.00 | 0.00 | 70 | 1019.5 |
| 20260903224217 | 63 | 146 | 1.0 | 3.0 | 0.00 | 0.00 | 0.00 | 70 | 1019.3 |
| 20260903224116 | 63 | 144 | 1.0 | 3.0 | 0.00 | 0.00 | 0.00 | 70 | 1019.4 |
| 20260903224017 | 63 | 145 | 0.0 | 3.0 | 0.00 | 0.00 | 0.00 | 70 | 1019.5 |
| 20260903223916 | 63 | 146 | 0.0 | 3.0 | 0.00 | 0.00 | 0.00 | 70 | 1019.5 |
| 20260903223816 | 63 | 149 | 1.0 | 3.0 | 0.00 | 0.00 | 0.00 | 70 | 1019.3 |
| 20260903223717 | 63 | 146 | 1.0 | 4.0 | 0.00 | 0.00 | 0.00 | 70 | 1019.4 |
| 20260903223618 | 63 | 144 | 0.0 | 4.0 | 0.00 | 0.00 | 0.00 | 70 | 1019.5 |
| 20260903223517 | 63 | 141 | 1.0 | 4.0 | 0.00 | 0.00 | 0.00 | 70 | 1019.4 |
| 20260903223417 | 63 | 141 | 0.0 | 4.0 | 0.00 | 0.00 | 0.00 | 70 | 1019.3 |
| 20260903223316 | 63 | 145 | 0.0 | 4.0 | 0.00 | 0.00 | 0.00 | 70 | 1019.4 |
| 20260903223217 | 63 | 144 | 1.0 | 4.0 | 0.00 | 0.00 | 0.00 | 70 | 1019.4 |
| 20260903223116 | 63 | 147 | 0.0 | 4.0 | 0.00 | 0.00 | 0.00 | 70 | 1019.4 |
| 20260903223017 | 63 | 146 | 1.0 | 4.0 | 0.00 | 0.00 | 0.00 | 70 | 1019.3 |
| 20260903222916 | 63 | 144 | 1.0 | 4.0 | 0.00 | 0.00 | 0.00 | 70 | 1019.4 |
| 20260903222817 | 63 | 145 | 1.0 | 4.0 | 0.00 | 0.00 | 0.00 | 70 | 1019.6 |
| 20260903222716 | 63 | 151 | 2.0 | 3.0 | 0.00 | 0.00 | 0.00 | 70 | 1019.5 |
| 20260903222617 | 63 | 154 | 0.0 | 3.0 | 0.00 | 0.00 | 0.00 | 70 | 1019.6 |
| 20260903222517 | 63 | 153 | 0.0 | 3.0 | 0.00 | 0.00 | 0.00 | 70 | 1019.4 |
| 20260903222416 | 63 | 156 | 1.0 | 3.0 | 0.00 | 0.00 | 0.00 | 70 | 1019.5 |
| 20260903222317 | 63 | 153 | 1.0 | 3.0 | 0.00 | 0.00 | 0.00 | 70 | 1019.6 |
| 20260903222216 | 63 | 158 | 1.0 | 3.0 | 0.00 | 0.00 | 0.00 | 70 | 1019.4 |
| 20260903222117 | 63 | 162 | 1.0 | 3.0 | 0.00 | 0.00 | 0.00 | 70 | 1019.5 |
| 20260903222017 | 63 | 159 | 1.0 | 3.0 | 0.00 | 0.00 | 0.00 | 70 | 1019.4 |
| 20260903221917 | 63 | 159 | 2.0 | 3.0 | 0.00 | 0.00 | 0.00 | 70 | 1019.7 |
| 20260903221816 | 63 | 161 | 2.0 | 3.0 | 0.00 | 0.00 | 0.00 | 70 | 1019.5 |
| 20260903221717 | 63 | 158 | 0.0 | 3.0 | 0.00 | 0.00 | 0.00 | 70 | 1019.5 |
| 20260903221616 | 63 | 155 | 1.0 | 3.0 | 0.00 | 0.00 | 0.00 | 70 | 1019.6 |
| 20260903221516 | 63 | 154 | 1.0 | 3.0 | 0.00 | 0.00 | 0.00 | 70 | 1019.6 |
| 20260903221417 | 63 | 152 | 1.0 | 3.0 | 0.00 | 0.00 | 0.00 | 70 | 1019.3 |
| 20260903221316 | 63 | 150 | 1.0 | 3.0 | 0.00 | 0.00 | 0.00 | 70 | 1019.5 |
| 20260903221217 | 63 | 147 | 2.0 | 3.0 | 0.00 | 0.00 | 0.00 | 70 | 1019.5 |
| 20260903221116 | 63 | 141 | 1.0 | 3.0 | 0.00 | 0.00 | 0.00 | 70 | 1019.5 |
| 20260903221018 | 63 | 141 | 2.0 | 3.0 | 0.00 | 0.00 | 0.00 | 70 | 1019.5 |
| 20260903220916 | 63 | 141 | 1.0 | 3.0 | 0.00 | 0.00 | 0.00 | 70 | 1019.7 |
| 20260903220817 | 63 | 138 | 2.0 | 3.0 | 0.00 | 0.00 | 0.00 | 70 | 1019.3 |
| 20260903220716 | 63 | 135 | 1.0 | 3.0 | 0.00 | 0.00 | 0.00 | 70 | 1019.8 |
| 20260903220617 | 63 | 135 | 1.0 | 3.0 | 0.00 | 0.00 | 0.00 | 70 | 1019.5 |
| 20260903220518 | 63 | 135 | 1.0 | 3.0 | 0.00 | 0.00 | 0.00 | 70 | 1019.8 |
| 20260903220416 | 63 | 139 | 1.0 | 3.0 | 0.00 | 0.00 | 0.00 | 70 | 1019.5 |
| 20260903220317 | 63 | 139 | 1.0 | 3.0 | 0.00 | 0.00 | 0.00 | 70 | 1019.5 |
| 20260903220218 | 63 | 139 | 1.0 | 3.0 | 0.00 | 0.00 | 0.00 | 70 | 1019.5 |
| 20260903220117 | 63 | 139 | 1.0 | 3.0 | 0.00 | 0.00 | 0.00 | 70 | 1019.5 |
| 20260903220017 | 63 | 139 | 1.0 | 3.0 | 0.00 | 0.00 | 0.00 | 70 | 1019.5 |
| 20260903215917 | 63 | 142 | 0.0 | 2.0 | 0.00 | 0.00 | 0.00 | 70 | 1019.7 |
| 20260903215818 | 63 | 143 | 0.0 | 2.0 | 0.00 | 0.00 | 0.00 | 70 | 1019.5 |
| 20260903215716 | 63 | 147 | 1.0 | 2.0 | 0.00 | 0.00 | 0.00 | 70 | 1019.5 |
| 20260903215616 | 63 | 151 | 0.0 | 2.0 | 0.00 | 0.00 | 0.00 | 70 | 1019.5 |
| 20260903215516 | 63 | 151 | 0.0 | 2.0 | 0.00 | 0.00 | 0.00 | 71 | 1019.7 |
| 20260903215417 | 63 | 146 | 1.0 | 2.0 | 0.00 | 0.00 | 0.00 | 71 | 1019.7 |
| 20260903215316 | 63 | 147 | 1.0 | 2.0 | 0.00 | 0.00 | 0.00 | 71 | 1019.9 |
| 20260903215216 | 63 | 148 | 0.0 | 3.0 | 0.00 | 0.00 | 0.00 | 71 | 1019.8 |
| 20260903215117 | 63 | 146 | 1.0 | 3.0 | 0.00 | 0.00 | 0.00 | 71 | 1019.8 |
| 20260903215017 | 63 | 148 | 0.0 | 3.0 | 0.00 | 0.00 | 0.00 | 71 | 1019.6 |
| 20260903214917 | 63 | 146 | 0.0 | 3.0 | 0.00 | 0.00 | 0.00 | 71 | 1019.6 |
| 20260903214816 | 63 | 143 | 0.0 | 3.0 | 0.00 | 0.00 | 0.00 | 71 | 1019.7 |
| 20260903214717 | 63 | 140 | 1.0 | 3.0 | 0.00 | 0.00 | 0.00 | 71 | 1019.6 |
| 20260903214616 | 63 | 136 | 0.0 | 3.0 | 0.00 | 0.00 | 0.00 | 71 | 1019.7 |
| 20260903214517 | 63 | 136 | 0.0 | 3.0 | 0.00 | 0.00 | 0.00 | 71 | 1019.5 |
| 20260903214417 | 63 | 136 | 0.0 | 3.0 | 0.00 | 0.00 | 0.00 | 71 | 1019.6 |
| 20260903214316 | 63 | 136 | 0.0 | 3.0 | 0.00 | 0.00 | 0.00 | 71 | 1019.7 |
| 20260903214217 | 63 | 139 | 1.0 | 3.0 | 0.00 | 0.00 | 0.00 | 71 | 1019.5 |
| 20260903214117 | 63 | 145 | 0.0 | 3.0 | 0.00 | 0.00 | 0.00 | 71 | 1019.5 |
| 20260903214016 | 63 | 148 | 0.0 | 3.0 | 0.00 | 0.00 | 0.00 | 71 | 1019.6 |
| 20260903213917 | 63 | 148 | 0.0 | 3.0 | 0.00 | 0.00 | 0.00 | 71 | 1019.5 |
| 20260903213817 | 63 | 150 | 1.0 | 3.0 | 0.00 | 0.00 | 0.00 | 71 | 1019.6 |
| 20260903213716 | 63 | 154 | 0.0 | 3.0 | 0.00 | 0.00 | 0.00 | 71 | 1019.6 |
| 20260903213617 | 63 | 158 | 1.0 | 3.0 | 0.00 | 0.00 | 0.00 | 71 | 1019.6 |
| 20260903213516 | 63 | 160 | 0.0 | 3.0 | 0.00 | 0.00 | 0.00 | 71 | 1019.6 |
| 20260903213417 | 63 | 158 | 0.0 | 3.0 | 0.00 | 0.00 | 0.00 | 71 | 1019.6 |
| 20260903213316 | 63 | 157 | 0.0 | 3.0 | 0.00 | 0.00 | 0.00 | 71 | 1019.6 |
| 20260903213217 | 63 | 154 | 0.0 | 3.0 | 0.00 | 0.00 | 0.00 | 71 | 1019.7 |
| 20260903213116 | 63 | 147 | 2.0 | 3.0 | 0.00 | 0.00 | 0.00 | 71 | 1019.6 |
| 20260903213016 | 63 | 135 | 0.0 | 0.0 | 0.00 | 0.00 | 0.00 | 71 | 1019.5 |
| 20260903212917 | 63 | 143 | 0.0 | 0.0 | 0.00 | 0.00 | 0.00 | 71 | 1019.6 |
| 20260903212816 | 63 | 149 | 0.0 | 0.0 | 0.00 | 0.00 | 0.00 | 71 | 1019.6 |
| 20260903212717 | 63 | 154 | 0.0 | 0.0 | 0.00 | 0.00 | 0.00 | 71 | 1019.7 |
| 20260903212617 | 63 | 157 | 0.0 | 0.0 | 0.00 | 0.00 | 0.00 | 71 | 1019.7 |
| 20260903212516 | 63 | 155 | 0.0 | 0.0 | 0.00 | 0.00 | 0.00 | 71 | 1019.7 |
| 20260903212416 | 63 | 156 | 0.0 | 0.0 | 0.00 | 0.00 | 0.00 | 71 | 1019.7 |
| 20260903212317 | 63 | 158 | 0.0 | 0.0 | 0.00 | 0.00 | 0.00 | 71 | 1019.8 |
| 20260903212216 | 63 | 157 | 0.0 | 0.0 | 0.00 | 0.00 | 0.00 | 71 | 1019.6 |
| 20260903212116 | 63 | 157 | 0.0 | 0.0 | 0.00 | 0.00 | 0.00 | 71 | 1019.7 |
| 20260903212017 | 63 | 158 | 0.0 | 0.0 | 0.00 | 0.00 | 0.00 | 71 | 1019.6 |
| 20260903211916 | 63 | 153 | 0.0 | 0.0 | 0.00 | 0.00 | 0.00 | 71 | 1019.8 |
| 20260903211817 | 63 | 147 | 0.0 | 0.0 | 0.00 | 0.00 | 0.00 | 71 | 1019.7 |
| 20260903211717 | 63 | 140 | 0.0 | 1.0 | 0.00 | 0.00 | 0.00 | 71 | 1019.7 |
| 20260903211617 | 63 | 141 | 0.0 | 1.0 | 0.00 | 0.00 | 0.00 | 71 | 1019.6 |
| 20260903211517 | 63 | 147 | 0.0 | 1.0 | 0.00 | 0.00 | 0.00 | 71 | 1019.3 |
| 20260903211418 | 63 | 145 | 0.0 | 2.0 | 0.00 | 0.00 | 0.00 | 71 | 1019.5 |
| 20260903211316 | 63 | 145 | 0.0 | 2.0 | 0.00 | 0.00 | 0.00 | 71 | 1019.3 |
| 20260903211217 | 63 | 145 | 0.0 | 2.0 | 0.00 | 0.00 | 0.00 | 71 | 1019.4 |
| 20260903211116 | 63 | 146 | 0.0 | 2.0 | 0.00 | 0.00 | 0.00 | 71 | 1019.4 |
| 20260903211017 | 63 | 146 | 0.0 | 2.0 | 0.00 | 0.00 | 0.00 | 71 | 1019.7 |
| 20260903210917 | 63 | 145 | 0.0 | 2.0 | 0.00 | 0.00 | 0.00 | 71 | 1019.6 |
| 20260903210816 | 63 | 144 | 0.0 | 2.0 | 0.00 | 0.00 | 0.00 | 71 | 1019.6 |
| 20260903210716 | 63 | 147 | 0.0 | 2.0 | 0.00 | 0.00 | 0.00 | 71 | 1019.6 |
| 20260903210617 | 63 | 148 | 0.0 | 2.0 | 0.00 | 0.00 | 0.00 | 71 | 1019.6 |
| 20260903210516 | 63 | 142 | 0.0 | 2.0 | 0.00 | 0.00 | 0.00 | 71 | 1019.4 |
| 20260903210417 | 63 | 143 | 1.0 | 2.0 | 0.00 | 0.00 | 0.00 | 71 | 1019.6 |
| 20260903210316 | 63 | 143 | 0.0 | 1.0 | 0.00 | 0.00 | 0.00 | 71 | 1019.6 |
| 20260903210217 | 63 | 142 | 0.0 | 1.0 | 0.00 | 0.00 | 0.00 | 71 | 1019.6 |
| 20260903210116 | 63 | 142 | 0.0 | 1.0 | 0.00 | 0.00 | 0.00 | 71 | 1019.6 |
| 20260903210017 | 63 | 143 | 0.0 | 1.0 | 0.00 | 0.00 | 0.00 | 71 | 1019.7 |
| 20260903205916 | 63 | 144 | 0.0 | 1.0 | 0.00 | 0.00 | 0.00 | 71 | 1019.8 |
| 20260903205817 | 63 | 145 | 0.0 | 1.0 | 0.00 | 0.00 | 0.00 | 71 | 1019.7 |
| 20260903205717 | 63 | 144 | 0.0 | 0.0 | 0.00 | 0.00 | 0.00 | 71 | 1019.6 |
| 20260903205616 | 63 | 136 | 0.0 | 0.0 | 0.00 | 0.00 | 0.00 | 71 | 1019.7 |
| 20260903205516 | 63 | 135 | 0.0 | 0.0 | 0.00 | 0.00 | 0.00 | 71 | 1019.7 |
| 20260903205417 | 63 | 135 | 0.0 | 0.0 | 0.00 | 0.00 | 0.00 | 71 | 1019.7 |
| 20260903205317 | 63 | 135 | 0.0 | 0.0 | 0.00 | 0.00 | 0.00 | 71 | 1019.6 |
| 20260903205216 | 63 | 135 | 0.0 | 0.0 | 0.00 | 0.00 | 0.00 | 71 | 1019.6 |
| 20260903205117 | 63 | 135 | 0.0 | 0.0 | 0.00 | 0.00 | 0.00 | 71 | 1019.5 |
| 20260903205016 | 63 | 135 | 0.0 | 0.0 | 0.00 | 0.00 | 0.00 | 71 | 1019.5 |
| 20260903204916 | 63 | 135 | 0.0 | 0.0 | 0.00 | 0.00 | 0.00 | 71 | 1019.5 |
| 20260903204817 | 63 | 144 | 0.0 | 0.0 | 0.00 | 0.00 | 0.00 | 71 | 1019.6 |
| 20260903204716 | 63 | 157 | 0.0 | 0.0 | 0.00 | 0.00 | 0.00 | 71 | 1019.5 |
| 20260903204617 | 63 | 153 | 0.0 | 0.0 | 0.00 | 0.00 | 0.00 | 71 | 1019.5 |
| 20260903204517 | 63 | 149 | 0.0 | 0.0 | 0.00 | 0.00 | 0.00 | 71 | 1019.7 |
| 20260903204417 | 63 | 148 | 0.0 | 0.0 | 0.00 | 0.00 | 0.00 | 71 | 1019.4 |
| 20260903204316 | 63 | 146 | 0.0 | 0.0 | 0.00 | 0.00 | 0.00 | 71 | 1019.5 |
| 20260903204217 | 63 | 146 | 0.0 | 0.0 | 0.00 | 0.00 | 0.00 | 71 | 1019.7 |
| 20260903204115 | 63 | 145 | 0.0 | 0.0 | 0.00 | 0.00 | 0.00 | 71 | 1019.5 |
| 20260903204016 | 63 | 145 | 0.0 | 0.0 | 0.00 | 0.00 | 0.00 | 71 | 1019.5 |
| 20260903203917 | 63 | 145 | 0.0 | 0.0 | 0.00 | 0.00 | 0.00 | 71 | 1019.5 |
| 20260903203816 | 63 | 143 | 0.0 | 0.0 | 0.00 | 0.00 | 0.00 | 71 | 1019.5 |
| 20260903203717 | 62 | 137 | 0.0 | 0.0 | 0.00 | 0.00 | 0.00 | 71 | 1019.5 |
| 20260903203616 | 62 | 135 | 0.0 | 0.0 | 0.00 | 0.00 | 0.00 | 71 | 1019.4 |
| 20260903203517 | 62 | 135 | 0.0 | 0.0 | 0.00 | 0.00 | 0.00 | 71 | 1019.5 |
| 20260903203417 | 62 | 135 | 0.0 | 0.0 | 0.00 | 0.00 | 0.00 | 71 | 1019.5 |
| 20260903203317 | 62 | 135 | 0.0 | 0.0 | 0.00 | 0.00 | 0.00 | 71 | 1019.5 |
| 20260903203216 | 62 | 135 | 0.0 | 0.0 | 0.00 | 0.00 | 0.00 | 71 | 1019.5 |
| 20260903203117 | 62 | 135 | 0.0 | 0.0 | 0.00 | 0.00 | 0.00 | 71 | 1019.4 |
| 20260903203016 | 63 | 135 | 0.0 | 0.0 | 0.00 | 0.00 | 0.00 | 71 | 1019.6 |
| 20260903202916 | 63 | 135 | 0.0 | 0.0 | 0.00 | 0.00 | 0.00 | 71 | 1019.4 |
| 20260903202817 | 63 | 135 | 0.0 | 0.0 | 0.00 | 0.00 | 0.00 | 71 | 1019.3 |
| 20260903202716 | 62 | 135 | 0.0 | 1.0 | 0.00 | 0.00 | 0.00 | 71 | 1019.5 |
| 20260903202617 | 62 | 135 | 0.0 | 1.0 | 0.00 | 0.00 | 0.00 | 71 | 1019.7 |
| 20260903202515 | 62 | 135 | 0.0 | 1.0 | 0.00 | 0.00 | 0.00 | 71 | 1019.6 |
| 20260903202416 | 62 | 135 | 0.0 | 1.0 | 0.00 | 0.00 | 0.00 | 71 | 1019.6 |
| 20260903202315 | 63 | 135 | 0.0 | 1.0 | 0.00 | 0.00 | 0.00 | 71 | 1019.5 |
| 20260903202216 | 63 | 135 | 0.0 | 1.0 | 0.00 | 0.00 | 0.00 | 71 | 1019.4 |
| 20260903202117 | 62 | 135 | 0.0 | 1.0 | 0.00 | 0.00 | 0.00 | 71 | 1019.7 |
| 20260903202016 | 62 | 133 | 0.0 | 1.0 | 0.00 | 0.00 | 0.00 | 71 | 1019.5 |
| 20260903201916 | 62 | 130 | 0.0 | 1.0 | 0.00 | 0.00 | 0.00 | 71 | 1019.6 |
| 20260903201817 | 62 | 129 | 0.0 | 1.0 | 0.00 | 0.00 | 0.00 | 71 | 1019.3 |
| 20260903201715 | 62 | 128 | 0.0 | 1.0 | 0.00 | 0.00 | 0.00 | 71 | 1019.5 |
| 20260903201616 | 62 | 125 | 0.0 | 1.0 | 0.00 | 0.00 | 0.00 | 70 | 1019.6 |
| 20260903201517 | 63 | 123 | 0.0 | 0.0 | 0.00 | 0.00 | 0.00 | 70 | 1019.6 |
| 20260903201416 | 63 | 120 | 0.0 | 0.0 | 0.00 | 0.00 | 0.00 | 70 | 1019.5 |
| 20260903201316 | 63 | 120 | 0.0 | 0.0 | 0.00 | 0.00 | 0.00 | 70 | 1019.5 |
| 20260903201217 | 63 | 120 | 0.0 | 0.0 | 0.00 | 0.00 | 0.00 | 70 | 1019.7 |
| 20260903201117 | 63 | 119 | 0.0 | 0.0 | 0.00 | 0.00 | 0.00 | 70 | 1019.5 |
| 20260903201016 | 63 | 118 | 0.0 | 0.0 | 0.00 | 0.00 | 0.00 | 70 | 1019.5 |
| 20260903200917 | 63 | 135 | 0.0 | 0.0 | 0.00 | 0.00 | 0.00 | 70 | 1019.7 |
| 20260903200816 | 63 | 135 | 0.0 | 0.0 | 0.00 | 0.00 | 0.00 | 70 | 1019.6 |
| 20260903200717 | 63 | 135 | 0.0 | 0.0 | 0.00 | 0.00 | 0.00 | 70 | 1019.7 |
| 20260903200616 | 63 | 135 | 0.0 | 0.0 | 0.00 | 0.00 | 0.00 | 70 | 1019.6 |
| 20260903200516 | 63 | 135 | 0.0 | 0.0 | 0.00 | 0.00 | 0.00 | 70 | 1019.6 |
| 20260903200417 | 63 | 135 | 0.0 | 0.0 | 0.00 | 0.00 | 0.00 | 70 | 1019.6 |
| 20260903200316 | 63 | 135 | 0.0 | 0.0 | 0.00 | 0.00 | 0.00 | 70 | 1019.9 |
| 20260903200217 | 63 | 135 | 0.0 | 0.0 | 0.00 | 0.00 | 0.00 | 70 | 1019.7 |
| 20260903200117 | 63 | 135 | 0.0 | 0.0 | 0.00 | 0.00 | 0.00 | 70 | 1019.7 |
| 20260903200017 | 63 | 135 | 0.0 | 0.0 | 0.00 | 0.00 | 0.00 | 70 | 1019.9 |
| 20260903195916 | 63 | 135 | 0.0 | 0.0 | 0.00 | 0.00 | 0.00 | 70 | 1019.6 |
| 20260903195817 | 63 | 135 | 0.0 | 0.0 | 0.00 | 0.00 | 0.00 | 70 | 1019.7 |
| 20260903195716 | 63 | 147 | 0.0 | 0.0 | 0.00 | 0.00 | 0.00 | 70 | 1019.9 |
| 20260903195617 | 63 | 152 | 0.0 | 0.0 | 0.00 | 0.00 | 0.00 | 70 | 1020.0 |
| 20260903195516 | 63 | 154 | 0.0 | 0.0 | 0.00 | 0.00 | 0.00 | 69 | 1019.8 |
| 20260903195417 | 63 | 154 | 0.0 | 0.0 | 0.00 | 0.00 | 0.00 | 69 | 1019.8 |
| 20260903195317 | 63 | 139 | 0.0 | 1.0 | 0.00 | 0.00 | 0.00 | 69 | 1019.8 |
| 20260903195216 | 63 | 147 | 0.0 | 2.0 | 0.00 | 0.00 | 0.00 | 69 | 1019.8 |
| 20260903195117 | 63 | 151 | 0.0 | 2.0 | 0.00 | 0.00 | 0.00 | 69 | 1019.8 |
| 20260903195017 | 63 | 154 | 0.0 | 2.0 | 0.00 | 0.00 | 0.00 | 69 | 1019.7 |
| 20260903194916 | 63 | 152 | 0.0 | 2.0 | 0.00 | 0.00 | 0.00 | 69 | 1019.9 |
| 20260903194817 | 63 | 152 | 0.0 | 2.0 | 0.00 | 0.00 | 0.00 | 68 | 1019.8 |
| 20260903194716 | 63 | 150 | 0.0 | 2.0 | 0.00 | 0.00 | 0.00 | 68 | 1019.9 |
| 20260903194617 | 63 | 150 | 0.0 | 2.0 | 0.00 | 0.00 | 0.00 | 68 | 1019.8 |
| 20260903194515 | 63 | 150 | 0.0 | 2.0 | 0.00 | 0.00 | 0.00 | 67 | 1019.8 |
| 20260903194416 | 63 | 150 | 0.0 | 2.0 | 0.00 | 0.00 | 0.00 | 67 | 1019.8 |
| 20260903194317 | 63 | 156 | 0.0 | 2.0 | 0.00 | 0.00 | 0.00 | 67 | 1020.0 |
| 20260903194218 | 63 | 158 | 0.0 | 2.0 | 0.00 | 0.00 | 0.00 | 67 | 1019.9 |
| 20260903194116 | 64 | 148 | 0.0 | 0.0 | 0.00 | 0.00 | 0.00 | 63 | 1019.9 |
| 20260903194016 | 64 | 139 | 0.0 | 0.0 | 0.00 | 0.00 | 0.00 | 63 | 1020.0 |
| 20260903193917 | 64 | 135 | 0.0 | 0.0 | 0.00 | 0.00 | 0.00 | 63 | 1020.0 |
| 20260903193816 | 64 | 0 | 0.0 | 0.0 | 0.00 | 0.00 | 0.00 | 63 | 1019.9 |
| 20260903193716 | 64 | 135 | 0.0 | 1.0 | 0.00 | 0.00 | 0.00 | 63 | 1020.0 |
| 20260903193617 | 64 | 135 | 0.0 | 1.0 | 0.00 | 0.00 | 0.00 | 62 | 1019.7 |
| 20260903193516 | 64 | 135 | 0.0 | 1.0 | 0.00 | 0.00 | 0.00 | 62 | 1019.7 |
| 20260903193416 | 64 | 135 | 0.0 | 1.0 | 0.00 | 0.00 | 0.00 | 62 | 1019.8 |
| 20260903193316 | 64 | 135 | 0.0 | 1.0 | 0.00 | 0.00 | 0.00 | 62 | 1019.9 |
| 20260903193217 | 64 | 135 | 0.0 | 1.0 | 0.00 | 0.00 | 0.00 | 62 | 1020.0 |
| 20260903193117 | 64 | 144 | 0.0 | 1.0 | 0.00 | 0.00 | 0.00 | 62 | 1020.0 |
| 20260903193017 | 64 | 146 | 0.0 | 1.0 | 0.00 | 0.00 | 0.00 | 62 | 1019.7 |
| 20260903192917 | 64 | 146 | 0.0 | 1.0 | 0.00 | 0.00 | 0.00 | 62 | 1019.8 |
| 20260903192816 | 64 | 146 | 0.0 | 1.0 | 0.00 | 0.00 | 0.00 | 62 | 1019.9 |
| 20260903192717 | 64 | 148 | 0.0 | 1.0 | 0.00 | 0.00 | 0.00 | 62 | 1019.9 |
| 20260903192617 | 64 | 154 | 0.0 | 1.0 | 0.00 | 0.00 | 0.00 | 62 | 1020.0 |
| 20260903192517 | 64 | 157 | 0.0 | 1.0 | 0.00 | 0.00 | 0.00 | 62 | 1019.9 |
| 20260903192417 | 64 | 157 | 0.0 | 1.0 | 0.00 | 0.00 | 0.00 | 62 | 1020.2 |
| 20260903192316 | 64 | 157 | 0.0 | 1.0 | 0.00 | 0.00 | 0.00 | 62 | 1020.0 |
| 20260903192216 | 64 | 163 | 0.0 | 1.0 | 0.00 | 0.00 | 0.00 | 62 | 1020.2 |
| 20260903192117 | 64 | 181 | 0.0 | 1.0 | 0.00 | 0.00 | 0.00 | 62 | 1020.0 |
| 20260903192016 | 64 | 0 | 0.0 | 0.0 | 0.00 | 0.00 | 0.00 | 62 | 1020.0 |
| 20260903191917 | 64 | 0 | 0.0 | 0.0 | 0.00 | 0.00 | 0.00 | 62 | 1019.8 |
| 20260903191816 | 64 | 0 | 0.0 | 0.0 | 0.00 | 0.00 | 0.00 | 62 | 1019.8 |
| 20260903191716 | 64 | 135 | 0.0 | 0.0 | 0.00 | 0.00 | 0.00 | 62 | 1019.9 |
| 20260903191617 | 64 | 135 | 0.0 | 0.0 | 0.00 | 0.00 | 0.00 | 62 | 1019.9 |
| 20260903191516 | 64 | 135 | 0.0 | 0.0 | 0.00 | 0.00 | 0.00 | 61 | 1019.9 |
| 20260903191417 | 64 | 135 | 0.0 | 0.0 | 0.00 | 0.00 | 0.00 | 61 | 1020.1 |
| 20260903191316 | 64 | 135 | 0.0 | 0.0 | 0.00 | 0.00 | 0.00 | 61 | 1019.9 |
| 20260903191216 | 64 | 135 | 0.0 | 0.0 | 0.00 | 0.00 | 0.00 | 61 | 1020.1 |
| 20260903191117 | 64 | 135 | 0.0 | 0.0 | 0.00 | 0.00 | 0.00 | 61 | 1020.0 |
| 20260903191017 | 64 | 135 | 0.0 | 0.0 | 0.00 | 0.00 | 0.00 | 61 | 1019.9 |
| 20260903190917 | 64 | 142 | 0.0 | 0.0 | 0.00 | 0.00 | 0.00 | 61 | 1020.1 |
| 20260903190816 | 64 | 142 | 0.0 | 0.0 | 0.00 | 0.00 | 0.00 | 61 | 1020.1 |
| 20260903190717 | 64 | 142 | 0.0 | 0.0 | 0.00 | 0.00 | 0.00 | 61 | 1020.0 |
| 20260903190616 | 64 | 145 | 0.0 | 0.0 | 0.00 | 0.00 | 0.00 | 61 | 1020.0 |
| 20260903190517 | 65 | 159 | 0.0 | 0.0 | 0.00 | 0.00 | 0.00 | 61 | 1020.0 |
| 20260903190416 | 65 | 162 | 0.0 | 0.0 | 0.00 | 0.00 | 0.00 | 61 | 1019.9 |
| 20260903190317 | 65 | 162 | 0.0 | 0.0 | 0.00 | 0.00 | 0.00 | 61 | 1019.9 |
| 20260903190216 | 65 | 162 | 0.0 | 0.0 | 0.00 | 0.00 | 0.00 | 61 | 1019.9 |
| 20260903190116 | 65 | 153 | 0.0 | 0.0 | 0.00 | 0.00 | 0.00 | 61 | 1019.9 |
| 20260903190017 | 65 | 154 | 0.0 | 0.0 | 0.00 | 0.00 | 0.00 | 61 | 1020.0 |
| 20260903185917 | 65 | 148 | 0.0 | 0.0 | 0.00 | 0.00 | 0.00 | 61 | 1019.9 |
| 20260903185816 | 65 | 148 | 0.0 | 0.0 | 0.00 | 0.00 | 0.00 | 61 | 1019.9 |
| 20260903185717 | 65 | 148 | 0.0 | 0.0 | 0.00 | 0.00 | 0.00 | 61 | 1020.0 |
| 20260903185617 | 65 | 148 | 0.0 | 0.0 | 0.00 | 0.00 | 0.00 | 61 | 1019.9 |
| 20260903185516 | 65 | 135 | 0.0 | 0.0 | 0.00 | 0.00 | 0.00 | 61 | 1019.9 |
| 20260903185417 | 65 | 135 | 0.0 | 0.0 | 0.00 | 0.00 | 0.00 | 61 | 1019.8 |
| 20260903185317 | 65 | 135 | 0.0 | 0.0 | 0.00 | 0.00 | 0.00 | 60 | 1019.9 |
| 20260903185216 | 65 | 135 | 0.0 | 0.0 | 0.00 | 0.00 | 0.00 | 60 | 1020.1 |
| 20260903185117 | 65 | 135 | 0.0 | 0.0 | 0.00 | 0.00 | 0.00 | 60 | 1019.9 |
| 20260903185016 | 65 | 135 | 0.0 | 0.0 | 0.00 | 0.00 | 0.00 | 60 | 1020.0 |
| 20260903184917 | 65 | 135 | 0.0 | 0.0 | 0.00 | 0.00 | 0.00 | 60 | 1020.0 |
| 20260903184817 | 65 | 135 | 0.0 | 0.0 | 0.00 | 0.00 | 0.00 | 60 | 1019.8 |
| 20260903184716 | 65 | 135 | 0.0 | 0.0 | 0.00 | 0.00 | 0.00 | 60 | 1020.1 |
| 20260903184617 | 65 | 135 | 0.0 | 0.0 | 0.00 | 0.00 | 0.00 | 60 | 1019.9 |
| 20260903184516 | 65 | 135 | 0.0 | 0.0 | 0.00 | 0.00 | 0.00 | 60 | 1020.1 |
| 20260903184416 | 65 | 135 | 0.0 | 0.0 | 0.00 | 0.00 | 0.00 | 60 | 1020.1 |
| 20260903184317 | 65 | 135 | 0.0 | 0.0 | 0.00 | 0.00 | 0.00 | 60 | 1019.9 |
| 20260903184216 | 65 | 142 | 0.0 | 0.0 | 0.00 | 0.00 | 0.00 | 60 | 1019.9 |
| 20260903184116 | 65 | 150 | 0.0 | 0.0 | 0.00 | 0.00 | 0.00 | 60 | 1019.8 |
| 20260903184017 | 65 | 153 | 0.0 | 0.0 | 0.00 | 0.00 | 0.00 | 60 | 1020.1 |
| 20260903183917 | 65 | 154 | 0.0 | 0.0 | 0.00 | 0.00 | 0.00 | 61 | 1020.0 |
| 20260903183816 | 64 | 156 | 0.0 | 0.0 | 0.00 | 0.00 | 0.00 | 61 | 1019.8 |
| 20260903183717 | 64 | 151 | 0.0 | 0.0 | 0.00 | 0.00 | 0.00 | 61 | 1019.9 |
| 20260903183617 | 64 | 152 | 0.0 | 0.0 | 0.00 | 0.00 | 0.00 | 61 | 1020.0 |
| 20260903183516 | 64 | 150 | 0.0 | 0.0 | 0.00 | 0.00 | 0.00 | 61 | 1019.9 |
| 20260903183417 | 64 | 152 | 0.0 | 0.0 | 0.00 | 0.00 | 0.00 | 61 | 1020.0 |
| 20260903183317 | 64 | 152 | 0.0 | 0.0 | 0.00 | 0.00 | 0.00 | 61 | 1020.1 |
| 20260903183216 | 64 | 147 | 0.0 | 0.0 | 0.00 | 0.00 | 0.00 | 61 | 1020.0 |
| 20260903183117 | 64 | 138 | 0.0 | 0.0 | 0.00 | 0.00 | 0.00 | 61 | 1019.9 |
| 20260903183017 | 65 | 139 | 0.0 | 0.0 | 0.00 | 0.00 | 0.00 | 61 | 1019.8 |
| 20260903182916 | 65 | 129 | 0.0 | 0.0 | 0.00 | 0.00 | 0.00 | 61 | 1020.0 |
| 20260903182817 | 65 | 103 | 0.0 | 0.0 | 0.00 | 0.00 | 0.00 | 61 | 1019.9 |
| 20260903182717 | 65 | 135 | 0.0 | 0.0 | 0.00 | 0.00 | 0.00 | 61 | 1019.9 |
| 20260903182617 | 65 | 135 | 0.0 | 0.0 | 0.00 | 0.00 | 0.00 | 61 | 1020.0 |
| 20260903182517 | 65 | 135 | 0.0 | 0.0 | 0.00 | 0.00 | 0.00 | 60 | 1019.9 |
| 20260903182416 | 65 | 135 | 0.0 | 0.0 | 0.00 | 0.00 | 0.00 | 60 | 1019.9 |
| 20260903182317 | 65 | 115 | 0.0 | 0.0 | 0.00 | 0.00 | 0.00 | 60 | 1019.9 |
| 20260903182216 | 65 | 112 | 0.0 | 0.0 | 0.00 | 0.00 | 0.00 | 60 | 1020.0 |
| 20260903182116 | 65 | 112 | 0.0 | 0.0 | 0.00 | 0.00 | 0.00 | 60 | 1020.0 |
| 20260903182017 | 65 | 112 | 0.0 | 0.0 | 0.00 | 0.00 | 0.00 | 60 | 1019.8 |
| 20260903181917 | 65 | 112 | 0.0 | 0.0 | 0.00 | 0.00 | 0.00 | 60 | 1020.0 |
| 20260903181816 | 65 | 112 | 0.0 | 0.0 | 0.00 | 0.00 | 0.00 | 60 | 1020.0 |
| 20260903181717 | 65 | 112 | 0.0 | 0.0 | 0.00 | 0.00 | 0.00 | 60 | 1019.9 |
| 20260903181616 | 65 | 112 | 0.0 | 0.0 | 0.00 | 0.00 | 0.00 | 60 | 1019.8 |
| 20260903181516 | 65 | 112 | 0.0 | 0.0 | 0.00 | 0.00 | 0.00 | 59 | 1020.1 |
| 20260903181417 | 65 | 106 | 0.0 | 0.0 | 0.00 | 0.00 | 0.00 | 59 | 1019.8 |
| 20260903181316 | 65 | 90 | 0.0 | 0.0 | 0.00 | 0.00 | 0.00 | 59 | 1019.9 |
| 20260903181216 | 65 | 0 | 0.0 | 0.0 | 0.00 | 0.00 | 0.00 | 58 | 1020.0 |
| 20260903181117 | 65 | 0 | 0.0 | 0.0 | 0.00 | 0.00 | 0.00 | 58 | 1020.0 |
| 20260903181016 | 65 | 0 | 0.0 | 0.0 | 0.00 | 0.00 | 0.00 | 58 | 1020.0 |
| 20260903180917 | 65 | 0 | 0.0 | 0.0 | 0.00 | 0.00 | 0.00 | 57 | 1020.0 |
| 20260903180816 | 65 | 0 | 0.0 | 0.0 | 0.00 | 0.00 | 0.00 | 57 | 1019.8 |
| 20260903180717 | 66 | 0 | 0.0 | 0.0 | 0.00 | 0.00 | 0.00 | 57 | 1019.8 |
| 20260903180618 | 66 | 0 | 0.0 | 0.0 | 0.00 | 0.00 | 0.00 | 57 | 1019.8 |
| 20260903180516 | 66 | 0 | 0.0 | 0.0 | 0.00 | 0.00 | 0.00 | 57 | 1019.8 |
| 20260903180416 | 66 | 0 | 0.0 | 0.0 | 0.00 | 0.00 | 0.00 | 57 | 1020.0 |
| 20260903180318 | 66 | 0 | 0.0 | 0.0 | 0.00 | 0.00 | 0.00 | 57 | 1020.0 |
| 20260903180217 | 66 | 0 | 0.0 | 0.0 | 0.00 | 0.00 | 0.00 | 57 | 1019.9 |
| 20260903180116 | 66 | 0 | 0.0 | 0.0 | 0.00 | 0.00 | 0.00 | 57 | 1019.8 |
| 20260903180017 | 66 | 0 | 0.0 | 0.0 | 0.00 | 0.00 | 0.00 | 57 | 1019.9 |
| 20260903175916 | 66 | 0 | 0.0 | 0.0 | 0.00 | 0.00 | 0.00 | 56 | 1019.7 |
| 20260903175817 | 66 | 0 | 0.0 | 0.0 | 0.00 | 0.00 | 0.00 | 56 | 1019.8 |
| 20260903175716 | 66 | 0 | 0.0 | 0.0 | 0.00 | 0.00 | 0.00 | 56 | 1019.7 |
| 20260903175617 | 66 | 0 | 0.0 | 0.0 | 0.00 | 0.00 | 0.00 | 56 | 1019.8 |
| 20260903175516 | 66 | 0 | 0.0 | 0.0 | 0.00 | 0.00 | 0.00 | 56 | 1019.8 |
| 20260903175417 | 66 | 0 | 0.0 | 0.0 | 0.00 | 0.00 | 0.00 | 56 | 1019.9 |
| 20260903175316 | 66 | 0 | 0.0 | 0.0 | 0.00 | 0.00 | 0.00 | 56 | 1019.9 |
| 20260903175217 | 66 | 181 | 0.0 | 0.0 | 0.00 | 0.00 | 0.00 | 56 | 1019.8 |
| 20260903175116 | 66 | 181 | 0.0 | 1.0 | 0.00 | 0.00 | 0.00 | 55 | 1019.9 |
| 20260903175016 | 66 | 181 | 0.0 | 1.0 | 0.00 | 0.00 | 0.00 | 55 | 1019.9 |
| 20260903174917 | 66 | 178 | 0.0 | 1.0 | 0.00 | 0.00 | 0.00 | 55 | 1019.9 |
| 20260903174816 | 67 | 167 | 0.0 | 1.0 | 0.00 | 0.00 | 0.00 | 55 | 1019.7 |
| 20260903174717 | 67 | 165 | 0.0 | 1.0 | 0.00 | 0.00 | 0.00 | 55 | 1019.9 |
| 20260903174617 | 67 | 165 | 0.0 | 1.0 | 0.00 | 0.00 | 0.00 | 55 | 1019.9 |
| 20260903174516 | 67 | 166 | 0.0 | 1.0 | 0.00 | 0.00 | 0.00 | 55 | 1019.8 |
| 20260903174416 | 67 | 167 | 0.0 | 1.0 | 0.00 | 0.00 | 0.00 | 55 | 1019.7 |
| 20260903174316 | 67 | 167 | 0.0 | 1.0 | 0.00 | 0.00 | 0.00 | 55 | 1019.9 |
| 20260903174217 | 67 | 167 | 0.0 | 1.0 | 0.00 | 0.00 | 0.00 | 55 | 1020.0 |
| 20260903174116 | 67 | 161 | 0.0 | 1.0 | 0.00 | 0.00 | 0.00 | 55 | 1019.7 |
| 20260903174017 | 67 | 162 | 0.0 | 0.0 | 0.00 | 0.00 | 0.00 | 55 | 1019.7 |
| 20260903173917 | 67 | 163 | 0.0 | 0.0 | 0.00 | 0.00 | 0.00 | 55 | 1019.9 |
| 20260903173817 | 67 | 172 | 0.0 | 0.0 | 0.00 | 0.00 | 0.00 | 55 | 1019.8 |
| 20260903173718 | 67 | 181 | 0.0 | 0.0 | 0.00 | 0.00 | 0.00 | 55 | 1019.5 |
| 20260903173616 | 67 | 176 | 0.0 | 0.0 | 0.00 | 0.00 | 0.00 | 55 | 1019.7 |
| 20260903173517 | 67 | 166 | 0.0 | 0.0 | 0.00 | 0.00 | 0.00 | 55 | 1019.8 |
| 20260903173417 | 67 | 161 | 0.0 | 0.0 | 0.00 | 0.00 | 0.00 | 55 | 1019.6 |
| 20260903173316 | 67 | 161 | 0.0 | 0.0 | 0.00 | 0.00 | 0.00 | 56 | 1019.8 |
| 20260903173217 | 67 | 161 | 0.0 | 0.0 | 0.00 | 0.00 | 0.00 | 56 | 1019.7 |
| 20260903173116 | 67 | 160 | 0.0 | 0.0 | 0.00 | 0.00 | 0.00 | 56 | 1019.7 |
| 20260903173016 | 67 | 158 | 0.0 | 0.0 | 0.00 | 0.00 | 0.00 | 56 | 1019.5 |
| 20260903172916 | 67 | 156 | 0.0 | 0.0 | 0.00 | 0.00 | 0.00 | 56 | 1019.6 |
| 20260903172817 | 67 | 156 | 0.0 | 0.0 | 0.00 | 0.00 | 0.00 | 56 | 1019.5 |
| 20260903172717 | 67 | 149 | 0.0 | 0.0 | 0.00 | 0.00 | 0.00 | 56 | 1019.4 |
| 20260903172616 | 67 | 147 | 0.0 | 0.0 | 0.00 | 0.00 | 0.00 | 56 | 1019.7 |
| 20260903172517 | 67 | 160 | 0.0 | 0.0 | 0.00 | 0.00 | 0.00 | 56 | 1019.5 |
| 20260903172416 | 68 | 160 | 0.0 | 0.0 | 0.00 | 0.00 | 0.00 | 56 | 1019.6 |
| 20260903172316 | 68 | 156 | 0.0 | 0.0 | 0.00 | 0.00 | 0.00 | 56 | 1019.6 |
| 20260903172217 | 68 | 152 | 0.0 | 0.0 | 0.00 | 0.00 | 0.00 | 56 | 1019.5 |
| 20260903172116 | 68 | 149 | 0.0 | 0.0 | 0.00 | 0.00 | 0.00 | 56 | 1019.6 |
| 20260903172018 | 68 | 143 | 0.0 | 0.0 | 0.00 | 0.00 | 0.00 | 56 | 1019.4 |
| 20260903171916 | 68 | 142 | 0.0 | 0.0 | 0.00 | 0.00 | 0.00 | 56 | 1019.5 |
| 20260903171817 | 68 | 142 | 0.0 | 0.0 | 0.00 | 0.00 | 0.00 | 57 | 1019.4 |
| 20260903171717 | 68 | 142 | 0.0 | 0.0 | 0.00 | 0.00 | 0.00 | 57 | 1019.6 |
| 20260903171616 | 68 | 144 | 0.0 | 0.0 | 0.00 | 0.00 | 0.00 | 57 | 1019.6 |
| 20260903171518 | 68 | 135 | 0.0 | 0.0 | 0.00 | 0.00 | 0.00 | 57 | 1019.6 |
| 20260903171417 | 68 | 135 | 0.0 | 0.0 | 0.00 | 0.00 | 0.00 | 57 | 1019.6 |
| 20260903171317 | 68 | 135 | 0.0 | 0.0 | 0.00 | 0.00 | 0.00 | 56 | 1019.5 |
| 20260903171216 | 68 | 135 | 0.0 | 0.0 | 0.00 | 0.00 | 0.00 | 56 | 1019.7 |
| 20260903171116 | 68 | 0 | 0.0 | 0.0 | 0.00 | 0.00 | 0.00 | 56 | 1019.5 |
| 20260903171016 | 68 | 0 | 0.0 | 0.0 | 0.00 | 0.00 | 0.00 | 56 | 1019.7 |
| 20260903170916 | 68 | 0 | 0.0 | 0.0 | 0.00 | 0.00 | 0.00 | 56 | 1019.7 |
| 20260903170817 | 69 | 0 | 0.0 | 0.0 | 0.00 | 0.00 | 0.00 | 56 | 1019.5 |
| 20260903170716 | 69 | 0 | 0.0 | 0.0 | 0.00 | 0.00 | 0.00 | 56 | 1019.5 |
| 20260903170616 | 69 | 0 | 0.0 | 0.0 | 0.00 | 0.00 | 0.00 | 56 | 1019.5 |
| 20260903170516 | 69 | 0 | 0.0 | 0.0 | 0.00 | 0.00 | 0.00 | 56 | 1019.5 |
| 20260903170417 | 69 | 0 | 0.0 | 0.0 | 0.00 | 0.00 | 0.00 | 56 | 1019.4 |
| 20260903170318 | 69 | 0 | 0.0 | 0.0 | 0.00 | 0.00 | 0.00 | 55 | 1019.5 |
| 20260903170217 | 69 | 0 | 0.0 | 0.0 | 0.00 | 0.00 | 0.00 | 55 | 1019.7 |
| 20260903170116 | 69 | 0 | 0.0 | 0.0 | 0.00 | 0.00 | 0.00 | 55 | 1019.6 |
| 20260903170017 | 69 | 0 | 0.0 | 0.0 | 0.00 | 0.00 | 0.00 | 55 | 1019.6 |
| 20260903165917 | 69 | 0 | 0.0 | 0.0 | 0.00 | 0.00 | 0.00 | 55 | 1019.5 |
| 20260903165817 | 69 | 0 | 0.0 | 0.0 | 0.00 | 0.00 | 0.00 | 55 | 1019.7 |
| 20260903165717 | 69 | 0 | 0.0 | 0.0 | 0.00 | 0.00 | 0.00 | 55 | 1019.5 |
| 20260903165616 | 69 | 0 | 0.0 | 0.0 | 0.00 | 0.00 | 0.00 | 55 | 1019.4 |
| 20260903165516 | 69 | 0 | 0.0 | 0.0 | 0.00 | 0.00 | 0.00 | 55 | 1019.4 |
| 20260903165417 | 69 | 0 | 0.0 | 0.0 | 0.00 | 0.00 | 0.00 | 54 | 1019.5 |
| 20260903165317 | 70 | 181 | 0.0 | 0.0 | 0.00 | 0.00 | 0.00 | 54 | 1019.6 |
| 20260903165216 | 70 | 181 | 0.0 | 0.0 | 0.00 | 0.00 | 0.00 | 54 | 1019.5 |
| 20260903165117 | 70 | 181 | 0.0 | 0.0 | 0.00 | 0.00 | 0.00 | 54 | 1019.4 |
| 20260903165016 | 70 | 181 | 0.0 | 0.0 | 0.00 | 0.00 | 0.00 | 54 | 1019.5 |
| 20260903164916 | 70 | 181 | 0.0 | 0.0 | 0.00 | 0.00 | 0.00 | 54 | 1019.6 |
| 20260903164817 | 70 | 181 | 0.0 | 0.0 | 0.00 | 0.00 | 0.00 | 54 | 1019.7 |
| 20260903164716 | 70 | 181 | 0.0 | 0.0 | 0.00 | 0.00 | 0.00 | 53 | 1019.3 |
| 20260903164617 | 70 | 194 | 0.0 | 0.0 | 0.00 | 0.00 | 0.00 | 53 | 1019.5 |
| 20260903164517 | 70 | 196 | 0.0 | 0.0 | 0.00 | 0.00 | 0.00 | 53 | 1019.5 |
| 20260903164416 | 70 | 196 | 0.0 | 0.0 | 0.00 | 0.00 | 0.00 | 53 | 1019.6 |
| 20260903164316 | 70 | 203 | 0.0 | 0.0 | 0.00 | 0.00 | 0.00 | 53 | 1019.4 |
| 20260903164216 | 70 | 203 | 0.0 | 0.0 | 0.00 | 0.00 | 0.00 | 53 | 1019.6 |
| 20260903164117 | 70 | 193 | 0.0 | 0.0 | 0.00 | 0.00 | 0.00 | 53 | 1019.7 |
| 20260903164017 | 71 | 171 | 0.0 | 0.0 | 0.00 | 0.00 | 0.00 | 53 | 1019.4 |
| 20260903163916 | 71 | 160 | 0.0 | 0.0 | 0.00 | 0.00 | 0.00 | 52 | 1019.5 |
| 20260903163817 | 71 | 166 | 0.0 | 0.0 | 0.00 | 0.00 | 0.00 | 52 | 1019.4 |
| 20260903163717 | 71 | 168 | 0.0 | 0.0 | 0.00 | 0.00 | 0.00 | 52 | 1019.5 |
| 20260903163616 | 71 | 152 | 0.0 | 0.0 | 0.00 | 0.00 | 0.00 | 52 | 1019.6 |
| 20260903163517 | 71 | 145 | 0.0 | 0.0 | 0.00 | 0.00 | 0.00 | 52 | 1019.5 |
| 20260903163417 | 71 | 145 | 0.0 | 0.0 | 0.00 | 0.00 | 0.00 | 52 | 1019.5 |
| 20260903163316 | 71 | 145 | 0.0 | 0.0 | 0.00 | 0.00 | 0.00 | 52 | 1019.3 |
| 20260903163217 | 71 | 145 | 0.0 | 0.0 | 0.00 | 0.00 | 0.00 | 52 | 1019.6 |
| 20260903163116 | 71 | 149 | 0.0 | 0.0 | 0.00 | 0.00 | 0.00 | 51 | 1019.5 |
| 20260903163016 | 71 | 166 | 0.0 | 2.0 | 0.00 | 0.00 | 0.00 | 51 | 1019.4 |
| 20260903162916 | 71 | 172 | 0.0 | 2.0 | 0.00 | 0.00 | 0.00 | 51 | 1019.6 |
| 20260903162817 | 71 | 161 | 0.0 | 2.0 | 0.00 | 0.00 | 0.00 | 51 | 1019.5 |
| 20260903162716 | 71 | 158 | 0.0 | 2.0 | 0.00 | 0.00 | 0.00 | 51 | 1019.5 |
| 20260903162617 | 71 | 161 | 0.0 | 2.0 | 0.00 | 0.00 | 0.00 | 51 | 1019.4 |
| 20260903162516 | 71 | 164 | 0.0 | 3.0 | 0.00 | 0.00 | 0.00 | 51 | 1019.5 |
| 20260903162417 | 71 | 186 | 0.0 | 3.0 | 0.00 | 0.00 | 0.00 | 51 | 1019.6 |
| 20260903162316 | 72 | 184 | 0.0 | 3.0 | 0.00 | 0.00 | 0.00 | 51 | 1019.5 |
| 20260903162217 | 72 | 175 | 0.0 | 3.0 | 0.00 | 0.00 | 0.00 | 51 | 1019.6 |
| 20260903162116 | 72 | 176 | 0.0 | 3.0 | 0.00 | 0.00 | 0.00 | 50 | 1019.6 |
| 20260903162016 | 72 | 178 | 1.0 | 3.0 | 0.00 | 0.00 | 0.00 | 50 | 1019.5 |
| 20260903161917 | 72 | 179 | 0.0 | 3.0 | 0.00 | 0.00 | 0.00 | 50 | 1019.5 |
| 20260903161818 | 72 | 183 | 0.0 | 3.0 | 0.00 | 0.00 | 0.00 | 50 | 1019.4 |
| 20260903161716 | 72 | 185 | 0.0 | 3.0 | 0.00 | 0.00 | 0.00 | 50 | 1019.4 |
| 20260903161617 | 72 | 183 | 0.0 | 3.0 | 0.00 | 0.00 | 0.00 | 50 | 1019.4 |
| 20260903161516 | 72 | 190 | 1.0 | 3.0 | 0.00 | 0.00 | 0.00 | 50 | 1019.4 |
| 20260903161417 | 72 | 188 | 1.0 | 3.0 | 0.00 | 0.00 | 0.00 | 50 | 1019.6 |
| 20260903161316 | 72 | 193 | 1.0 | 3.0 | 0.00 | 0.00 | 0.00 | 50 | 1019.3 |
| 20260903161216 | 72 | 203 | 1.0 | 3.0 | 0.00 | 0.00 | 0.00 | 50 | 1019.5 |
| 20260903161117 | 72 | 207 | 0.0 | 3.0 | 0.00 | 0.00 | 0.00 | 50 | 1019.4 |
| 20260903161017 | 72 | 207 | 0.0 | 3.0 | 0.00 | 0.00 | 0.00 | 50 | 1019.5 |
| 20260903160917 | 72 | 205 | 0.0 | 3.0 | 0.00 | 0.00 | 0.00 | 50 | 1019.6 |
| 20260903160816 | 72 | 205 | 1.0 | 3.0 | 0.00 | 0.00 | 0.00 | 50 | 1019.5 |
| 20260903160717 | 72 | 207 | 0.0 | 3.0 | 0.00 | 0.00 | 0.00 | 50 | 1019.5 |
| 20260903160616 | 72 | 205 | 2.0 | 3.0 | 0.00 | 0.00 | 0.00 | 50 | 1019.5 |
| 20260903160516 | 72 | 207 | 1.0 | 3.0 | 0.00 | 0.00 | 0.00 | 51 | 1019.5 |
| 20260903160417 | 72 | 206 | 1.0 | 3.0 | 0.00 | 0.00 | 0.00 | 51 | 1019.6 |
| 20260903160318 | 72 | 205 | 1.0 | 3.0 | 0.00 | 0.00 | 0.00 | 51 | 1019.6 |
| 20260903160216 | 72 | 208 | 1.0 | 3.0 | 0.00 | 0.00 | 0.00 | 51 | 1019.6 |
| 20260903160117 | 72 | 206 | 1.0 | 3.0 | 0.00 | 0.00 | 0.00 | 51 | 1019.5 |
| 20260903160018 | 72 | 199 | 1.0 | 4.0 | 0.00 | 0.00 | 0.00 | 51 | 1019.5 |
| 20260903155917 | 72 | 201 | 0.0 | 4.0 | 0.00 | 0.00 | 0.00 | 51 | 1019.3 |
| 20260903155818 | 72 | 206 | 0.0 | 4.0 | 0.00 | 0.00 | 0.00 | 51 | 1019.4 |
| 20260903155717 | 72 | 210 | 2.0 | 4.0 | 0.00 | 0.00 | 0.00 | 48 | 1019.5 |
| 20260903155616 | 72 | 230 | 2.0 | 4.0 | 0.00 | 0.00 | 0.00 | 48 | 1019.5 |
| 20260903155516 | 72 | 233 | 0.0 | 4.0 | 0.00 | 0.00 | 0.00 | 48 | 1019.6 |
| 20260903155417 | 72 | 230 | 0.0 | 4.0 | 0.00 | 0.00 | 0.00 | 48 | 1019.4 |
| 20260903155316 | 72 | 224 | 2.0 | 4.0 | 0.00 | 0.00 | 0.00 | 48 | 1019.3 |
| 20260903155216 | 73 | 220 | 0.0 | 4.0 | 0.00 | 0.00 | 0.00 | 48 | 1019.4 |
| 20260903155116 | 73 | 222 | 0.0 | 4.0 | 0.00 | 0.00 | 0.00 | 48 | 1019.4 |
| 20260903155017 | 73 | 226 | 3.0 | 4.0 | 0.00 | 0.00 | 0.00 | 47 | 1019.6 |
| 20260903154917 | 73 | 221 | 0.0 | 3.0 | 0.00 | 0.00 | 0.00 | 47 | 1019.6 |
| 20260903154816 | 73 | 215 | 0.0 | 3.0 | 0.00 | 0.00 | 0.00 | 47 | 1019.4 |
| 20260903154717 | 73 | 220 | 2.0 | 3.0 | 0.00 | 0.00 | 0.00 | 47 | 1019.6 |
| 20260903154617 | 73 | 207 | 2.0 | 3.0 | 0.00 | 0.00 | 0.00 | 47 | 1019.4 |
| 20260903154516 | 73 | 197 | 2.0 | 3.0 | 0.00 | 0.00 | 0.00 | 48 | 1019.5 |
| 20260903154416 | 73 | 206 | 0.0 | 3.0 | 0.00 | 0.00 | 0.00 | 47 | 1019.5 |
| 20260903154317 | 73 | 221 | 1.0 | 3.0 | 0.00 | 0.00 | 0.00 | 47 | 1019.5 |
| 20260903154217 | 73 | 229 | 0.0 | 3.0 | 0.00 | 0.00 | 0.00 | 47 | 1019.4 |
| 20260903154116 | 73 | 245 | 0.0 | 3.0 | 0.00 | 0.00 | 0.00 | 47 | 1019.6 |
| 20260903154017 | 73 | 287 | 0.0 | 3.0 | 0.00 | 0.00 | 0.00 | 47 | 1019.6 |
| 20260903153916 | 73 | 288 | 1.0 | 3.0 | 0.00 | 0.00 | 0.00 | 47 | 1019.6 |
| 20260903153817 | 73 | 276 | 0.0 | 3.0 | 0.00 | 0.00 | 0.00 | 47 | 1019.5 |
| 20260903153717 | 73 | 264 | 1.0 | 3.0 | 0.00 | 0.00 | 0.00 | 47 | 1019.5 |
| 20260903153616 | 73 | 262 | 0.0 | 3.0 | 0.00 | 0.00 | 0.00 | 47 | 1019.4 |
| 20260903153517 | 73 | 263 | 1.0 | 3.0 | 0.00 | 0.00 | 0.00 | 46 | 1019.5 |
| 20260903153416 | 73 | 254 | 0.0 | 3.0 | 0.00 | 0.00 | 0.00 | 47 | 1019.5 |
| 20260903153316 | 73 | 223 | 0.0 | 3.0 | 0.00 | 0.00 | 0.00 | 47 | 1019.4 |
| 20260903153217 | 73 | 212 | 0.0 | 3.0 | 0.00 | 0.00 | 0.00 | 47 | 1019.6 |
| 20260903153117 | 73 | 198 | 2.0 | 3.0 | 0.00 | 0.00 | 0.00 | 47 | 1019.5 |
| 20260903153016 | 73 | 189 | 2.0 | 3.0 | 0.00 | 0.00 | 0.00 | 47 | 1019.5 |
| 20260903152917 | 73 | 182 | 0.0 | 3.0 | 0.00 | 0.00 | 0.00 | 47 | 1019.5 |
| 20260903152816 | 73 | 182 | 2.0 | 3.0 | 0.00 | 0.00 | 0.00 | 47 | 1019.4 |
| 20260903152716 | 73 | 164 | 0.0 | 3.0 | 0.00 | 0.00 | 0.00 | 48 | 1019.6 |
| 20260903152618 | 73 | 157 | 0.0 | 3.0 | 0.00 | 0.00 | 0.00 | 48 | 1019.6 |
| 20260903152517 | 73 | 164 | 1.0 | 3.0 | 0.00 | 0.00 | 0.00 | 48 | 1019.5 |
| 20260903152417 | 73 | 177 | 0.0 | 3.0 | 0.00 | 0.00 | 0.00 | 48 | 1019.4 |
| 20260903152317 | 73 | 187 | 0.0 | 3.0 | 0.00 | 0.00 | 0.00 | 48 | 1019.4 |
| 20260903152216 | 73 | 194 | 0.0 | 3.0 | 0.00 | 0.00 | 0.00 | 48 | 1019.7 |
| 20260903152117 | 73 | 214 | 0.0 | 4.0 | 0.00 | 0.00 | 0.00 | 47 | 1019.4 |
| 20260903152016 | 73 | 265 | 1.0 | 6.0 | 0.00 | 0.00 | 0.00 | 47 | 1019.6 |
| 20260903151917 | 73 | 308 | 0.0 | 6.0 | 0.00 | 0.00 | 0.00 | 47 | 1019.5 |
| 20260903151818 | 73 | 303 | 0.0 | 6.0 | 0.00 | 0.00 | 0.00 | 47 | 1019.6 |
| 20260903151716 | 73 | 294 | 2.0 | 6.0 | 0.00 | 0.00 | 0.00 | 47 | 1019.5 |
| 20260903151617 | 73 | 283 | 0.0 | 6.0 | 0.00 | 0.00 | 0.00 | 47 | 1019.5 |
| 20260903151516 | 73 | 269 | 1.0 | 6.0 | 0.00 | 0.00 | 0.00 | 47 | 1019.4 |
| 20260903151417 | 73 | 260 | 0.0 | 6.0 | 0.00 | 0.00 | 0.00 | 47 | 1019.6 |
| 20260903151316 | 73 | 257 | 0.0 | 6.0 | 0.00 | 0.00 | 0.00 | 46 | 1019.5 |
| 20260903151217 | 73 | 255 | 0.0 | 6.0 | 0.00 | 0.00 | 0.00 | 46 | 1019.5 |
| 20260903151116 | 73 | 259 | 2.0 | 6.0 | 0.00 | 0.00 | 0.00 | 46 | 1019.7 |
| 20260903151017 | 73 | 245 | 4.0 | 6.0 | 0.00 | 0.00 | 0.00 | 46 | 1019.4 |
| 20260903150916 | 73 | 234 | 3.0 | 5.0 | 0.00 | 0.00 | 0.00 | 46 | 1019.5 |
| 20260903150817 | 73 | 234 | 2.0 | 3.0 | 0.00 | 0.00 | 0.00 | 46 | 1019.4 |
| 20260903150717 | 73 | 230 | 0.0 | 3.0 | 0.00 | 0.00 | 0.00 | 46 | 1019.5 |
| 20260903150616 | 73 | 234 | 1.0 | 3.0 | 0.00 | 0.00 | 0.00 | 45 | 1019.6 |
| 20260903150517 | 73 | 228 | 1.0 | 3.0 | 0.00 | 0.00 | 0.00 | 45 | 1019.4 |
| 20260903150417 | 73 | 217 | 1.0 | 4.0 | 0.00 | 0.00 | 0.00 | 45 | 1019.4 |
| 20260903150317 | 73 | 217 | 1.0 | 4.0 | 0.00 | 0.00 | 0.00 | 45 | 1019.6 |
| 20260903150217 | 73 | 212 | 1.0 | 4.0 | 0.00 | 0.00 | 0.00 | 45 | 1019.8 |
| 20260903150118 | 73 | 212 | 1.0 | 4.0 | 0.00 | 0.00 | 0.00 | 45 | 1019.7 |
| 20260903150016 | 73 | 201 | 1.0 | 4.0 | 0.00 | 0.00 | 0.00 | 45 | 1019.7 |
| 20260903145916 | 73 | 197 | 1.0 | 4.0 | 0.00 | 0.00 | 0.00 | 45 | 1019.7 |
| 20260903145817 | 73 | 171 | 2.0 | 4.0 | 0.00 | 0.00 | 0.00 | 45 | 1019.7 |
| 20260903145716 | 73 | 160 | 1.0 | 4.0 | 0.00 | 0.00 | 0.00 | 45 | 1019.7 |
| 20260903145617 | 73 | 142 | 1.0 | 4.0 | 0.00 | 0.00 | 0.00 | 45 | 1019.7 |
| 20260903145516 | 73 | 134 | 1.0 | 4.0 | 0.00 | 0.00 | 0.00 | 45 | 1019.9 |
| 20260903145417 | 73 | 158 | 3.0 | 4.0 | 0.00 | 0.00 | 0.00 | 45 | 1019.7 |
| 20260903145318 | 74 | 125 | 3.0 | 4.0 | 0.00 | 0.00 | 0.00 | 45 | 1019.7 |
| 20260903145216 | 74 | 116 | 1.0 | 3.0 | 0.00 | 0.00 | 0.00 | 46 | 1019.7 |
| 20260903145117 | 74 | 115 | 1.0 | 3.0 | 0.00 | 0.00 | 0.00 | 46 | 1019.7 |
| 20260903145016 | 74 | 114 | 1.0 | 3.0 | 0.00 | 0.00 | 0.00 | 46 | 1019.6 |
| 20260903144917 | 74 | 136 | 0.0 | 4.0 | 0.00 | 0.00 | 0.00 | 46 | 1019.8 |
| 20260903144817 | 74 | 173 | 2.0 | 4.0 | 0.00 | 0.00 | 0.00 | 46 | 1019.9 |
| 20260903144718 | 74 | 177 | 0.0 | 4.0 | 0.00 | 0.00 | 0.00 | 46 | 1019.6 |
| 20260903144616 | 74 | 172 | 0.0 | 4.0 | 0.00 | 0.00 | 0.00 | 46 | 1019.7 |
| 20260903144517 | 74 | 201 | 1.0 | 4.0 | 0.00 | 0.00 | 0.00 | 45 | 1019.8 |
| 20260903144417 | 74 | 215 | 1.0 | 4.0 | 0.00 | 0.00 | 0.00 | 45 | 1019.6 |
| 20260903144316 | 74 | 221 | 2.0 | 4.0 | 0.00 | 0.00 | 0.00 | 46 | 1019.9 |
| 20260903144216 | 74 | 229 | 0.0 | 4.0 | 0.00 | 0.00 | 0.00 | 46 | 1019.7 |
| 20260903144117 | 74 | 238 | 0.0 | 4.0 | 0.00 | 0.00 | 0.00 | 46 | 1019.7 |
| 20260903144017 | 74 | 245 | 1.0 | 4.0 | 0.00 | 0.00 | 0.00 | 45 | 1019.7 |
| 20260903143916 | 74 | 243 | 3.0 | 4.0 | 0.00 | 0.00 | 0.00 | 45 | 1019.7 |
| 20260903143817 | 74 | 249 | 3.0 | 4.0 | 0.00 | 0.00 | 0.00 | 45 | 1019.7 |
| 20260903143718 | 74 | 252 | 0.0 | 3.0 | 0.00 | 0.00 | 0.00 | 46 | 1019.7 |
| 20260903143616 | 74 | 247 | 0.0 | 3.0 | 0.00 | 0.00 | 0.00 | 45 | 1019.7 |
| 20260903143517 | 74 | 247 | 3.0 | 3.0 | 0.00 | 0.00 | 0.00 | 46 | 1019.7 |
| 20260903143417 | 74 | 255 | 2.0 | 4.0 | 0.00 | 0.00 | 0.00 | 46 | 1019.7 |
| 20260903143316 | 74 | 250 | 0.0 | 4.0 | 0.00 | 0.00 | 0.00 | 46 | 1019.8 |
| 20260903143217 | 74 | 271 | 0.0 | 4.0 | 0.00 | 0.00 | 0.00 | 46 | 1019.9 |
| 20260903143116 | 74 | 281 | 0.0 | 4.0 | 0.00 | 0.00 | 0.00 | 46 | 1019.7 |
| 20260903143017 | 74 | 287 | 0.0 | 4.0 | 0.00 | 0.00 | 0.00 | 46 | 1019.9 |
| 20260903142917 | 74 | 291 | 0.0 | 4.0 | 0.00 | 0.00 | 0.00 | 46 | 1020.0 |
| 20260903142818 | 74 | 305 | 0.0 | 4.0 | 0.00 | 0.00 | 0.00 | 46 | 1019.8 |
| 20260903142717 | 74 | 313 | 0.0 | 4.0 | 0.00 | 0.00 | 0.00 | 45 | 1019.8 |
| 20260903142617 | 74 | 323 | 0.0 | 4.0 | 0.00 | 0.00 | 0.00 | 45 | 1019.7 |
| 20260903142517 | 74 | 322 | 1.0 | 4.0 | 0.00 | 0.00 | 0.00 | 45 | 1019.9 |
| 20260903142417 | 74 | 319 | 3.0 | 4.0 | 0.00 | 0.00 | 0.00 | 45 | 1019.7 |
| 20260903142317 | 74 | 326 | 1.0 | 4.0 | 0.00 | 0.00 | 0.00 | 45 | 1019.9 |
| 20260903142217 | 74 | 332 | 1.0 | 4.0 | 0.00 | 0.00 | 0.00 | 45 | 1019.7 |
| 20260903142116 | 74 | 334 | 3.0 | 4.0 | 0.00 | 0.00 | 0.00 | 45 | 1019.7 |
| 20260903142017 | 74 | 326 | 0.0 | 4.0 | 0.00 | 0.00 | 0.00 | 45 | 1019.7 |
| 20260903141917 | 74 | 303 | 1.0 | 4.0 | 0.00 | 0.00 | 0.00 | 45 | 1019.7 |
| 20260903141816 | 74 | 270 | 0.0 | 4.0 | 0.00 | 0.00 | 0.00 | 45 | 1019.6 |
| 20260903141716 | 74 | 238 | 1.0 | 4.0 | 0.00 | 0.00 | 0.00 | 45 | 1019.6 |
| 20260903141617 | 74 | 234 | 1.0 | 6.0 | 0.00 | 0.00 | 0.00 | 45 | 1019.6 |
| 20260903141516 | 74 | 223 | 3.0 | 6.0 | 0.00 | 0.00 | 0.00 | 45 | 1019.7 |
| 20260903141416 | 74 | 218 | 0.0 | 6.0 | 0.00 | 0.00 | 0.00 | 45 | 1019.6 |
| 20260903141317 | 74 | 222 | 0.0 | 6.0 | 0.00 | 0.00 | 0.00 | 44 | 1019.8 |
| 20260903141217 | 74 | 226 | 0.0 | 6.0 | 0.00 | 0.00 | 0.00 | 44 | 1019.6 |
| 20260903141116 | 74 | 230 | 3.0 | 6.0 | 0.00 | 0.00 | 0.00 | 44 | 1019.7 |
| 20260903141017 | 74 | 225 | 2.0 | 6.0 | 0.00 | 0.00 | 0.00 | 44 | 1019.6 |
| 20260903140916 | 74 | 236 | 1.0 | 6.0 | 0.00 | 0.00 | 0.00 | 44 | 1019.7 |
| 20260903140817 | 74 | 247 | 0.0 | 6.0 | 0.00 | 0.00 | 0.00 | 44 | 1019.7 |
| 20260903140717 | 74 | 260 | 1.0 | 6.0 | 0.00 | 0.00 | 0.00 | 44 | 1019.7 |
| 20260903140617 | 74 | 275 | 3.0 | 6.0 | 0.00 | 0.00 | 0.00 | 44 | 1019.8 |
| 20260903140516 | 74 | 291 | 2.0 | 6.0 | 0.00 | 0.00 | 0.00 | 43 | 1019.5 |
| 20260903140417 | 74 | 290 | 2.0 | 6.0 | 0.00 | 0.00 | 0.00 | 43 | 1019.6 |
| 20260903140318 | 74 | 286 | 2.0 | 6.0 | 0.00 | 0.00 | 0.00 | 43 | 1019.8 |
| 20260903140217 | 74 | 288 | 2.0 | 6.0 | 0.00 | 0.00 | 0.00 | 43 | 1020.0 |
| 20260903140118 | 74 | 297 | 2.0 | 6.0 | 0.00 | 0.00 | 0.00 | 43 | 1019.7 |
| 20260903140016 | 74 | 297 | 2.0 | 6.0 | 0.00 | 0.00 | 0.00 | 43 | 1019.7 |
| 20260903135916 | 74 | 259 | 3.0 | 6.0 | 0.00 | 0.00 | 0.00 | 43 | 1019.7 |
| 20260903135816 | 75 | 223 | 3.0 | 6.0 | 0.00 | 0.00 | 0.00 | 43 | 1019.7 |
| 20260903135717 | 75 | 226 | 1.0 | 5.0 | 0.00 | 0.00 | 0.00 | 43 | 1019.8 |
| 20260903135617 | 75 | 230 | 2.0 | 5.0 | 0.00 | 0.00 | 0.00 | 43 | 1019.8 |
| 20260903135516 | 75 | 231 | 2.0 | 5.0 | 0.00 | 0.00 | 0.00 | 43 | 1019.8 |
| 20260903135416 | 75 | 239 | 2.0 | 5.0 | 0.00 | 0.00 | 0.00 | 43 | 1019.8 |
| 20260903135317 | 75 | 245 | 3.0 | 5.0 | 0.00 | 0.00 | 0.00 | 43 | 1019.6 |
| 20260903135216 | 75 | 234 | 1.0 | 5.0 | 0.00 | 0.00 | 0.00 | 43 | 1019.7 |
| 20260903135117 | 75 | 221 | 1.0 | 5.0 | 0.00 | 0.00 | 0.00 | 42 | 1019.6 |
| 20260903135016 | 75 | 213 | 2.0 | 5.0 | 0.00 | 0.00 | 0.00 | 42 | 1019.8 |
| 20260903134916 | 75 | 212 | 1.0 | 5.0 | 0.00 | 0.00 | 0.00 | 42 | 1019.6 |
| 20260903134817 | 75 | 210 | 1.0 | 5.0 | 0.00 | 0.00 | 0.00 | 41 | 1019.6 |
| 20260903134718 | 75 | 194 | 2.0 | 5.0 | 0.00 | 0.00 | 0.00 | 41 | 1019.6 |
| 20260903134617 | 75 | 191 | 3.0 | 5.0 | 0.00 | 0.00 | 0.00 | 41 | 1019.8 |
| 20260903134516 | 75 | 192 | 1.0 | 5.0 | 0.00 | 0.00 | 0.00 | 42 | 1019.7 |
| 20260903134416 | 75 | 186 | 2.0 | 5.0 | 0.00 | 0.00 | 0.00 | 42 | 1019.8 |
| 20260903134317 | 75 | 165 | 3.0 | 5.0 | 0.00 | 0.00 | 0.00 | 42 | 1019.8 |
| 20260903134216 | 75 | 168 | 2.0 | 5.0 | 0.00 | 0.00 | 0.00 | 42 | 1019.8 |
| 20260903134116 | 75 | 221 | 3.0 | 5.0 | 0.00 | 0.00 | 0.00 | 42 | 1019.7 |
| 20260903134017 | 75 | 257 | 3.0 | 5.0 | 0.00 | 0.00 | 0.00 | 42 | 1019.6 |
| 20260903133918 | 75 | 255 | 1.0 | 5.0 | 0.00 | 0.00 | 0.00 | 43 | 1019.6 |
| 20260903133816 | 75 | 264 | 1.0 | 5.0 | 0.00 | 0.00 | 0.00 | 43 | 1019.6 |
| 20260903133717 | 76 | 270 | 3.0 | 5.0 | 0.00 | 0.00 | 0.00 | 43 | 1019.8 |
| 20260903133616 | 76 | 274 | 1.0 | 5.0 | 0.00 | 0.00 | 0.00 | 43 | 1019.7 |
| 20260903133517 | 76 | 266 | 2.0 | 5.0 | 0.00 | 0.00 | 0.00 | 43 | 1019.7 |
| 20260903133418 | 76 | 242 | 3.0 | 5.0 | 0.00 | 0.00 | 0.00 | 43 | 1019.7 |
| 20260903133317 | 76 | 237 | 1.0 | 4.0 | 0.00 | 0.00 | 0.00 | 43 | 1019.8 |
| 20260903133217 | 76 | 227 | 1.0 | 4.0 | 0.00 | 0.00 | 0.00 | 43 | 1019.6 |
| 20260903133117 | 76 | 222 | 3.0 | 4.0 | 0.00 | 0.00 | 0.00 | 42 | 1019.7 |
| 20260903133016 | 76 | 208 | 2.0 | 4.0 | 0.00 | 0.00 | 0.00 | 42 | 1019.8 |
| 20260903132918 | 76 | 192 | 2.0 | 5.0 | 0.00 | 0.00 | 0.00 | 42 | 1019.7 |
| 20260903132816 | 76 | 177 | 1.0 | 5.0 | 0.00 | 0.00 | 0.00 | 42 | 1019.8 |
| 20260903132717 | 76 | 220 | 0.0 | 5.0 | 0.00 | 0.00 | 0.00 | 42 | 1019.6 |
| 20260903132616 | 77 | 203 | 0.0 | 5.0 | 0.00 | 0.00 | 0.00 | 42 | 1019.8 |
| 20260903132517 | 77 | 203 | 1.0 | 5.0 | 0.00 | 0.00 | 0.00 | 42 | 1019.7 |
| 20260903132417 | 77 | 201 | 3.0 | 5.0 | 0.00 | 0.00 | 0.00 | 42 | 1019.6 |
| 20260903132317 | 77 | 200 | 1.0 | 5.0 | 0.00 | 0.00 | 0.00 | 42 | 1019.6 |
| 20260903132217 | 77 | 223 | 1.0 | 5.0 | 0.00 | 0.00 | 0.00 | 42 | 1019.6 |
| 20260903132116 | 77 | 223 | 1.0 | 5.0 | 0.00 | 0.00 | 0.00 | 42 | 1019.6 |
| 20260903132016 | 77 | 230 | 2.0 | 5.0 | 0.00 | 0.00 | 0.00 | 42 | 1019.4 |
| 20260903131916 | 77 | 239 | 3.0 | 5.0 | 0.00 | 0.00 | 0.00 | 42 | 1019.6 |
| 20260903131817 | 77 | 234 | 1.0 | 4.0 | 0.00 | 0.00 | 0.00 | 42 | 1019.6 |
| 20260903131717 | 77 | 228 | 1.0 | 6.0 | 0.00 | 0.00 | 0.00 | 42 | 1019.7 |
| 20260903131616 | 77 | 231 | 1.0 | 6.0 | 0.00 | 0.00 | 0.00 | 42 | 1019.6 |
| 20260903131517 | 77 | 234 | 2.0 | 6.0 | 0.00 | 0.00 | 0.00 | 42 | 1019.7 |
| 20260903131416 | 77 | 234 | 1.0 | 6.0 | 0.00 | 0.00 | 0.00 | 42 | 1019.6 |
| 20260903131317 | 77 | 233 | 0.0 | 6.0 | 0.00 | 0.00 | 0.00 | 42 | 1019.5 |
| 20260903131217 | 77 | 225 | 2.0 | 6.0 | 0.00 | 0.00 | 0.00 | 41 | 1019.8 |
| 20260903131116 | 77 | 219 | 1.0 | 6.0 | 0.00 | 0.00 | 0.00 | 42 | 1019.7 |
| 20260903131017 | 76 | 202 | 0.0 | 6.0 | 0.00 | 0.00 | 0.00 | 42 | 1019.6 |
| 20260903130917 | 76 | 150 | 0.0 | 6.0 | 0.00 | 0.00 | 0.00 | 42 | 1019.6 |
| 20260903130816 | 76 | 182 | 1.0 | 6.0 | 0.00 | 0.00 | 0.00 | 42 | 1019.5 |
| 20260903130717 | 76 | 211 | 0.0 | 3.0 | 0.00 | 0.00 | 0.00 | 41 | 1019.8 |
| 20260903130617 | 75 | 203 | 0.0 | 3.0 | 0.00 | 0.00 | 0.00 | 41 | 1019.6 |
| 20260903130516 | 75 | 218 | 0.0 | 6.0 | 0.00 | 0.00 | 0.00 | 41 | 1019.9 |
| 20260903130416 | 75 | 242 | 0.0 | 6.0 | 0.00 | 0.00 | 0.00 | 41 | 1019.7 |
| 20260903130317 | 75 | 255 | 0.0 | 6.0 | 0.00 | 0.00 | 0.00 | 41 | 1019.8 |
| 20260903130217 | 75 | 262 | 0.0 | 6.0 | 0.00 | 0.00 | 0.00 | 41 | 1019.8 |
| 20260903130117 | 75 | 251 | 0.0 | 6.0 | 0.00 | 0.00 | 0.00 | 41 | 1019.8 |
| 20260903130017 | 75 | 260 | 0.0 | 6.0 | 0.00 | 0.00 | 0.00 | 41 | 1019.7 |
| 20260903125917 | 75 | 260 | 2.0 | 6.0 | 0.00 | 0.00 | 0.00 | 41 | 1020.0 |
| 20260903125816 | 75 | 263 | 2.0 | 6.0 | 0.00 | 0.00 | 0.00 | 41 | 1020.0 |
| 20260903125717 | 75 | 239 | 2.0 | 6.0 | 0.00 | 0.00 | 0.00 | 41 | 1019.9 |
| 20260903125617 | 75 | 245 | 3.0 | 6.0 | 0.00 | 0.00 | 0.00 | 41 | 1019.9 |
| 20260903125517 | 76 | 255 | 3.0 | 6.0 | 0.00 | 0.00 | 0.00 | 41 | 1019.9 |
| 20260903125417 | 76 | 230 | 2.0 | 6.0 | 0.00 | 0.00 | 0.00 | 41 | 1020.1 |
| 20260903125316 | 76 | 229 | 0.0 | 5.0 | 0.00 | 0.00 | 0.00 | 42 | 1020.0 |
| 20260903125217 | 76 | 228 | 0.0 | 5.0 | 0.00 | 0.00 | 0.00 | 42 | 1019.9 |
| 20260903125117 | 76 | 232 | 1.0 | 5.0 | 0.00 | 0.00 | 0.00 | 41 | 1019.8 |
| 20260903125017 | 76 | 210 | 0.0 | 5.0 | 0.00 | 0.00 | 0.00 | 41 | 1020.1 |
| 20260903124916 | 76 | 215 | 2.0 | 5.0 | 0.00 | 0.00 | 0.00 | 41 | 1020.0 |
| 20260903124817 | 76 | 186 | 0.0 | 5.0 | 0.00 | 0.00 | 0.00 | 41 | 1019.9 |
| 20260903124716 | 76 | 176 | 2.0 | 5.0 | 0.00 | 0.00 | 0.00 | 41 | 1020.0 |
| 20260903124617 | 76 | 199 | 2.0 | 5.0 | 0.00 | 0.00 | 0.00 | 41 | 1019.9 |
| 20260903124516 | 76 | 183 | 2.0 | 6.0 | 0.00 | 0.00 | 0.00 | 41 | 1019.9 |
| 20260903124416 | 76 | 163 | 3.0 | 6.0 | 0.00 | 0.00 | 0.00 | 41 | 1019.9 |
| 20260903124316 | 76 | 181 | 3.0 | 6.0 | 0.00 | 0.00 | 0.00 | 42 | 1020.1 |
| 20260903124216 | 76 | 184 | 0.0 | 6.0 | 0.00 | 0.00 | 0.00 | 42 | 1020.0 |
| 20260903124116 | 76 | 172 | 0.0 | 6.0 | 0.00 | 0.00 | 0.00 | 42 | 1020.0 |
| 20260903124017 | 76 | 173 | 2.0 | 6.0 | 0.00 | 0.00 | 0.00 | 41 | 1020.0 |
| 20260903123916 | 76 | 165 | 3.0 | 6.0 | 0.00 | 0.00 | 0.00 | 41 | 1020.0 |
| 20260903123817 | 76 | 230 | 2.0 | 7.0 | 0.00 | 0.00 | 0.00 | 41 | 1020.0 |
| 20260903123716 | 76 | 259 | 1.0 | 7.0 | 0.00 | 0.00 | 0.00 | 41 | 1019.9 |
| 20260903123616 | 76 | 265 | 1.0 | 7.0 | 0.00 | 0.00 | 0.00 | 41 | 1020.0 |
| 20260903123515 | 76 | 277 | 0.0 | 7.0 | 0.00 | 0.00 | 0.00 | 41 | 1020.0 |
| 20260903123416 | 76 | 270 | 1.0 | 7.0 | 0.00 | 0.00 | 0.00 | 41 | 1020.1 |
| 20260903121703 | 78 | 285 | 1.0 | 6.0 | 0.00 | 0.00 | 0.00 | 40 | 1019.8 |
| 20260903121604 | 78 | 275 | 3.0 | 6.0 | 0.00 | 0.00 | 0.00 | 40 | 1019.9 |
| 20260903121504 | 78 | 273 | 0.0 | 6.0 | 0.00 | 0.00 | 0.00 | 40 | 1019.8 |
| 20260903121404 | 78 | 276 | 3.0 | 6.0 | 0.00 | 0.00 | 0.00 | 40 | 1020.0 |
| 20260903121303 | 78 | 276 | 3.0 | 6.0 | 0.00 | 0.00 | 0.00 | 40 | 1020.1 |
| 20260903121203 | 78 | 296 | 3.0 | 6.0 | 0.00 | 0.00 | 0.00 | 40 | 1020.1 |
| 20260903121103 | 78 | 315 | 3.0 | 6.0 | 0.00 | 0.00 | 0.00 | 41 | 1019.9 |
| 20260903121004 | 78 | 312 | 3.0 | 6.0 | 0.00 | 0.00 | 0.00 | 41 | 1020.0 |
| 20260903120904 | 78 | 329 | 0.0 | 6.0 | 0.00 | 0.00 | 0.00 | 41 | 1020.1 |
| 20260903120804 | 78 | 314 | 1.0 | 6.0 | 0.00 | 0.00 | 0.00 | 41 | 1019.8 |
| 20260903120704 | 78 | 288 | 1.0 | 6.0 | 0.00 | 0.00 | 0.00 | 40 | 1020.0 |
| 20260903120603 | 78 | 297 | 4.0 | 6.0 | 0.00 | 0.00 | 0.00 | 40 | 1020.1 |
| 20260903120504 | 79 | 291 | 0.0 | 5.0 | 0.00 | 0.00 | 0.00 | 37 | 1020.2 |
| 20260903120404 | 79 | 279 | 0.0 | 5.0 | 0.00 | 0.00 | 0.00 | 37 | 1019.9 |
| 20260903120303 | 79 | 270 | 0.0 | 5.0 | 0.00 | 0.00 | 0.00 | 37 | 1019.9 |
| 20260903120203 | 79 | 261 | 0.0 | 5.0 | 0.00 | 0.00 | 0.00 | 37 | 1020.2 |
| 20260903120104 | 79 | 258 | 0.0 | 5.0 | 0.00 | 0.00 | 0.00 | 37 | 1020.2 |
| 20260903120006 | 79 | 251 | 0.0 | 5.0 | 0.00 | 0.00 | 0.00 | 37 | 1020.0 |
| 20260903115903 | 79 | 246 | 4.0 | 5.0 | 0.00 | 0.00 | 0.00 | 36 | 1020.0 |
| 20260903115803 | 79 | 236 | 3.0 | 5.0 | 0.00 | 0.00 | 0.00 | 36 | 1020.2 |
| 20260903115703 | 79 | 242 | 3.0 | 5.0 | 0.00 | 0.00 | 0.00 | 36 | 1020.3 |
| 20260903115603 | 80 | 241 | 3.0 | 4.0 | 0.00 | 0.00 | 0.00 | 36 | 1020.1 |
| 20260903115504 | 80 | 247 | 3.0 | 4.0 | 0.00 | 0.00 | 0.00 | 37 | 1020.2 |
| 20260903115404 | 80 | 249 | 1.0 | 4.0 | 0.00 | 0.00 | 0.00 | 38 | 1020.1 |
| 20260903115305 | 80 | 249 | 0.0 | 4.0 | 0.00 | 0.00 | 0.00 | 38 | 1020.3 |
| 20260903115203 | 80 | 252 | 2.0 | 4.0 | 0.00 | 0.00 | 0.00 | 38 | 1020.1 |
| 20260903115104 | 80 | 258 | 1.0 | 4.0 | 0.00 | 0.00 | 0.00 | 38 | 1020.1 |
| 20260903115003 | 80 | 271 | 2.0 | 4.0 | 0.00 | 0.00 | 0.00 | 38 | 1020.2 |
| 20260903114904 | 81 | 281 | 1.0 | 4.0 | 0.00 | 0.00 | 0.00 | 38 | 1020.2 |
| 20260903114803 | 81 | 281 | 2.0 | 4.0 | 0.00 | 0.00 | 0.00 | 38 | 1020.2 |
| 20260903114703 | 81 | 278 | 3.0 | 6.0 | 0.00 | 0.00 | 0.00 | 38 | 1020.1 |
| 20260903114604 | 81 | 284 | 1.0 | 6.0 | 0.00 | 0.00 | 0.00 | 38 | 1020.2 |
| 20260903114503 | 81 | 280 | 1.0 | 6.0 | 0.00 | 0.00 | 0.00 | 40 | 1020.3 |
| 20260903114403 | 81 | 270 | 1.0 | 6.0 | 0.00 | 0.00 | 0.00 | 40 | 1020.2 |
| 20260903114303 | 80 | 265 | 0.0 | 6.0 | 0.00 | 0.00 | 0.00 | 40 | 1020.1 |
| 20260903114205 | 80 | 263 | 1.0 | 6.0 | 0.00 | 0.00 | 0.00 | 39 | 1020.2 |
| 20260903114104 | 80 | 246 | 1.0 | 6.0 | 0.00 | 0.00 | 0.00 | 40 | 1020.2 |
| 20260903114004 | 80 | 239 | 1.0 | 6.0 | 0.00 | 0.00 | 0.00 | 40 | 1020.4 |
| 20260903113904 | 80 | 234 | 0.0 | 6.0 | 0.00 | 0.00 | 0.00 | 39 | 1020.3 |
| 20260903113804 | 80 | 231 | 1.0 | 6.0 | 0.00 | 0.00 | 0.00 | 38 | 1020.1 |
| 20260903113704 | 81 | 220 | 3.0 | 6.0 | 0.00 | 0.00 | 0.00 | 37 | 1020.2 |
| 20260903113604 | 81 | 186 | 3.0 | 6.0 | 0.00 | 0.00 | 0.00 | 38 | 1020.4 |
| 20260903113504 | 82 | 183 | 0.0 | 5.0 | 0.00 | 0.00 | 0.00 | 34 | 1020.1 |
| 20260903113404 | 82 | 186 | 0.0 | 5.0 | 0.00 | 0.00 | 0.00 | 35 | 1020.3 |
| 20260903113304 | 82 | 188 | 1.0 | 5.0 | 0.00 | 0.00 | 0.00 | 35 | 1020.1 |
| 20260903113203 | 82 | 196 | 1.0 | 5.0 | 0.00 | 0.00 | 0.00 | 35 | 1020.3 |
| 20260903113104 | 81 | 207 | 3.0 | 5.0 | 0.00 | 0.00 | 0.00 | 39 | 1020.2 |
| 20260903113006 | 82 | 221 | 1.0 | 4.0 | 0.00 | 0.00 | 0.00 | 34 | 1020.2 |
| 20260903112903 | 82 | 218 | 0.0 | 4.0 | 0.00 | 0.00 | 0.00 | 34 | 1020.2 |
| 20260903112803 | 82 | 218 | 1.0 | 4.0 | 0.00 | 0.00 | 0.00 | 33 | 1020.4 |
| 20260903112704 | 82 | 221 | 3.0 | 4.0 | 0.00 | 0.00 | 0.00 | 34 | 1020.4 |
| 20260903112604 | 82 | 227 | 2.0 | 3.0 | 0.00 | 0.00 | 0.00 | 34 | 1020.4 |
| 20260903112504 | 82 | 238 | 1.0 | 3.0 | 0.00 | 0.00 | 0.00 | 34 | 1020.4 |
| 20260903112405 | 82 | 243 | 0.0 | 3.0 | 0.00 | 0.00 | 0.00 | 34 | 1020.2 |
| 20260903112305 | 82 | 237 | 1.0 | 3.0 | 0.00 | 0.00 | 0.00 | 35 | 1020.3 |
| 20260903112204 | 82 | 192 | 1.0 | 3.0 | 0.00 | 0.00 | 0.00 | 35 | 1020.3 |
| 20260903112103 | 82 | 201 | 0.0 | 3.0 | 0.00 | 0.00 | 0.00 | 35 | 1020.2 |
| 20260903112004 | 82 | 255 | 0.0 | 3.0 | 0.00 | 0.00 | 0.00 | 35 | 1020.3 |
| 20260903111904 | 82 | 275 | 1.0 | 3.0 | 0.00 | 0.00 | 0.00 | 35 | 1020.4 |
| 20260903111804 | 82 | 275 | 2.0 | 3.0 | 0.00 | 0.00 | 0.00 | 35 | 1020.4 |
| 20260903111703 | 82 | 260 | 1.0 | 3.0 | 0.00 | 0.00 | 0.00 | 35 | 1020.3 |
| 20260903111604 | 82 | 261 | 1.0 | 3.0 | 0.00 | 0.00 | 0.00 | 35 | 1020.4 |
| 20260903111503 | 82 | 246 | 1.0 | 4.0 | 0.00 | 0.00 | 0.00 | 37 | 1020.4 |
| 20260903111403 | 81 | 250 | 0.0 | 4.0 | 0.00 | 0.00 | 0.00 | 41 | 1020.3 |
| 20260903111304 | 81 | 253 | 0.0 | 4.0 | 0.00 | 0.00 | 0.00 | 40 | 1020.4 |
| 20260903111204 | 81 | 254 | 0.0 | 4.0 | 0.00 | 0.00 | 0.00 | 40 | 1020.3 |
| 20260903111103 | 81 | 253 | 2.0 | 4.0 | 0.00 | 0.00 | 0.00 | 40 | 1020.3 |
| 20260903111003 | 82 | 248 | 2.0 | 4.0 | 0.00 | 0.00 | 0.00 | 35 | 1020.3 |
| 20260903110904 | 82 | 244 | 1.0 | 4.0 | 0.00 | 0.00 | 0.00 | 36 | 1020.5 |
| 20260903110804 | 82 | 243 | 2.0 | 4.0 | 0.00 | 0.00 | 0.00 | 36 | 1020.5 |
| 20260903110703 | 82 | 241 | 1.0 | 4.0 | 0.00 | 0.00 | 0.00 | 35 | 1020.7 |
| 20260903110603 | 82 | 235 | 1.0 | 4.0 | 0.00 | 0.00 | 0.00 | 35 | 1020.4 |
| 20260903110503 | 82 | 241 | 2.0 | 4.0 | 0.00 | 0.00 | 0.00 | 34 | 1020.5 |
| 20260903110403 | 82 | 233 | 1.0 | 4.0 | 0.00 | 0.00 | 0.00 | 34 | 1020.5 |
| 20260903110302 | 82 | 227 | 1.0 | 4.0 | 0.00 | 0.00 | 0.00 | 34 | 1020.6 |
| 20260903110204 | 82 | 225 | 3.0 | 4.0 | 0.00 | 0.00 | 0.00 | 35 | 1020.6 |
| 20260903110103 | 82 | 213 | 3.0 | 4.0 | 0.00 | 0.00 | 0.00 | 35 | 1020.4 |
| 20260903110006 | 82 | 210 | 1.0 | 3.0 | 0.00 | 0.00 | 0.00 | 36 | 1020.4 |
| 20260903105903 | 82 | 213 | 0.0 | 3.0 | 0.00 | 0.00 | 0.00 | 37 | 1020.7 |
| 20260903105804 | 82 | 218 | 0.0 | 3.0 | 0.00 | 0.00 | 0.00 | 36 | 1020.6 |
| 20260903105704 | 82 | 223 | 1.0 | 5.0 | 0.00 | 0.00 | 0.00 | 35 | 1020.8 |
| 20260903105604 | 82 | 232 | 1.0 | 5.0 | 0.00 | 0.00 | 0.00 | 35 | 1020.6 |
| 20260903105503 | 82 | 232 | 0.0 | 5.0 | 0.00 | 0.00 | 0.00 | 37 | 1020.6 |
| 20260903105404 | 82 | 240 | 0.0 | 5.0 | 0.00 | 0.00 | 0.00 | 36 | 1020.8 |
| 20260903105305 | 82 | 243 | 0.0 | 5.0 | 0.00 | 0.00 | 0.00 | 36 | 1020.8 |
| 20260903105203 | 82 | 244 | 1.0 | 5.0 | 0.00 | 0.00 | 0.00 | 36 | 1020.7 |
| 20260903105104 | 81 | 244 | 0.0 | 5.0 | 0.00 | 0.00 | 0.00 | 40 | 1020.7 |
| 20260903105003 | 81 | 242 | 1.0 | 5.0 | 0.00 | 0.00 | 0.00 | 40 | 1020.8 |
| 20260903104903 | 81 | 243 | 1.0 | 5.0 | 0.00 | 0.00 | 0.00 | 40 | 1020.6 |
| 20260903104806 | 82 | 240 | 2.0 | 5.0 | 0.00 | 0.00 | 0.00 | 35 | 1020.7 |
| 20260903104704 | 82 | 234 | 3.0 | 5.0 | 0.00 | 0.00 | 0.00 | 35 | 1020.7 |
| 20260903104604 | 82 | 215 | 1.0 | 3.0 | 0.00 | 0.00 | 0.00 | 35 | 1020.6 |
| 20260903104504 | 82 | 205 | 1.0 | 3.0 | 0.00 | 0.00 | 0.00 | 35 | 1020.8 |
| 20260903104404 | 82 | 198 | 2.0 | 3.0 | 0.00 | 0.00 | 0.00 | 35 | 1020.8 |
| 20260903104304 | 82 | 195 | 1.0 | 3.0 | 0.00 | 0.00 | 0.00 | 38 | 1020.8 |
| 20260903104204 | 82 | 188 | 0.0 | 3.0 | 0.00 | 0.00 | 0.00 | 39 | 1020.8 |
| 20260903104104 | 82 | 183 | 0.0 | 3.0 | 0.00 | 0.00 | 0.00 | 39 | 1020.8 |
| 20260903104005 | 82 | 185 | 0.0 | 3.0 | 0.00 | 0.00 | 0.00 | 40 | 1020.6 |
| 20260903103903 | 82 | 189 | 0.0 | 3.0 | 0.00 | 0.00 | 0.00 | 39 | 1020.7 |
| 20260903103804 | 82 | 190 | 1.0 | 3.0 | 0.00 | 0.00 | 0.00 | 39 | 1020.9 |
| 20260903103704 | 82 | 191 | 1.0 | 3.0 | 0.00 | 0.00 | 0.00 | 39 | 1020.8 |
| 20260903103604 | 82 | 198 | 1.0 | 3.0 | 0.00 | 0.00 | 0.00 | 39 | 1020.8 |
| 20260903103503 | 82 | 196 | 1.0 | 3.0 | 0.00 | 0.00 | 0.00 | 39 | 1020.9 |
| 20260903103404 | 82 | 203 | 1.0 | 3.0 | 0.00 | 0.00 | 0.00 | 39 | 1021.0 |
| 20260903103303 | 82 | 210 | 0.0 | 3.0 | 0.00 | 0.00 | 0.00 | 40 | 1021.0 |
| 20260903103203 | 82 | 218 | 0.0 | 3.0 | 0.00 | 0.00 | 0.00 | 40 | 1020.8 |
| 20260903103103 | 81 | 224 | 0.0 | 3.0 | 0.00 | 0.00 | 0.00 | 42 | 1020.9 |
| 20260903103006 | 81 | 230 | 1.0 | 3.0 | 0.00 | 0.00 | 0.00 | 42 | 1020.9 |
| 20260903102903 | 81 | 242 | 1.0 | 3.0 | 0.00 | 0.00 | 0.00 | 42 | 1021.0 |
| 20260903102804 | 81 | 251 | 0.0 | 3.0 | 0.00 | 0.00 | 0.00 | 43 | 1021.0 |
| 20260903102703 | 80 | 261 | 3.0 | 3.0 | 0.00 | 0.00 | 0.00 | 42 | 1020.8 |
| 20260903102603 | 80 | 262 | 0.0 | 3.0 | 0.00 | 0.00 | 0.00 | 42 | 1021.0 |
| 20260903102503 | 80 | 259 | 0.0 | 3.0 | 0.00 | 0.00 | 0.00 | 41 | 1021.1 |
| 20260903102403 | 80 | 248 | 1.0 | 3.0 | 0.00 | 0.00 | 0.00 | 41 | 1021.0 |
| 20260903102305 | 80 | 242 | 1.0 | 3.0 | 0.00 | 0.00 | 0.00 | 41 | 1021.0 |
| 20260903102204 | 80 | 248 | 2.0 | 3.0 | 0.00 | 0.00 | 0.00 | 41 | 1021.1 |
| 20260903102103 | 81 | 239 | 2.0 | 6.0 | 0.00 | 0.00 | 0.00 | 41 | 1021.2 |
| 20260903102003 | 81 | 247 | 2.0 | 6.0 | 0.00 | 0.00 | 0.00 | 41 | 1021.1 |
| 20260903101904 | 81 | 242 | 0.0 | 6.0 | 0.00 | 0.00 | 0.00 | 43 | 1021.3 |
| 20260903101803 | 81 | 246 | 1.0 | 6.0 | 0.00 | 0.00 | 0.00 | 43 | 1021.2 |
| 20260903101704 | 81 | 251 | 2.0 | 6.0 | 0.00 | 0.00 | 0.00 | 43 | 1021.1 |
| 20260903101602 | 80 | 252 | 0.0 | 6.0 | 0.00 | 0.00 | 0.00 | 43 | 1021.2 |
| 20260903101503 | 80 | 253 | 0.0 | 6.0 | 0.00 | 0.00 | 0.00 | 43 | 1021.3 |
| 20260903101404 | 80 | 258 | 1.0 | 6.0 | 0.00 | 0.00 | 0.00 | 43 | 1021.3 |
| 20260903101304 | 80 | 260 | 2.0 | 6.0 | 0.00 | 0.00 | 0.00 | 42 | 1021.4 |
| 20260903101202 | 80 | 254 | 2.0 | 6.0 | 0.00 | 0.00 | 0.00 | 42 | 1021.3 |
| 20260903101103 | 80 | 263 | 3.0 | 6.0 | 0.00 | 0.00 | 0.00 | 42 | 1021.2 |
| 20260903101003 | 81 | 256 | 0.0 | 3.0 | 0.00 | 0.00 | 0.00 | 43 | 1021.3 |
| 20260903100903 | 81 | 249 | 2.0 | 3.0 | 0.00 | 0.00 | 0.00 | 42 | 1021.3 |
| 20260903100804 | 81 | 267 | 1.0 | 4.0 | 0.00 | 0.00 | 0.00 | 43 | 1021.2 |
| 20260903100704 | 80 | 231 | 0.0 | 4.0 | 0.00 | 0.00 | 0.00 | 44 | 1021.1 |
| 20260903100604 | 79 | 210 | 0.0 | 4.0 | 0.00 | 0.00 | 0.00 | 42 | 1021.2 |
| 20260903100505 | 79 | 168 | 0.0 | 4.0 | 0.00 | 0.00 | 0.00 | 42 | 1021.2 |
| 20260903100405 | 79 | 134 | 0.0 | 4.0 | 0.00 | 0.00 | 0.00 | 42 | 1021.2 |
| 20260903100303 | 79 | 143 | 0.0 | 4.0 | 0.00 | 0.00 | 0.00 | 42 | 1021.3 |
| 20260903100203 | 79 | 144 | 0.0 | 4.0 | 0.00 | 0.00 | 0.00 | 42 | 1021.0 |
| 20260903100103 | 79 | 135 | 0.0 | 4.0 | 0.00 | 0.00 | 0.00 | 42 | 1021.2 |
| 20260903100007 | 79 | 139 | 0.0 | 4.0 | 0.00 | 0.00 | 0.00 | 42 | 1021.2 |
| 20260903095904 | 80 | 151 | 3.0 | 4.0 | 0.00 | 0.00 | 0.00 | 42 | 1021.2 |
| 20260903095803 | 80 | 149 | 0.0 | 2.0 | 0.00 | 0.00 | 0.00 | 42 | 1021.2 |
| 20260903095703 | 80 | 161 | 1.0 | 2.0 | 0.00 | 0.00 | 0.00 | 43 | 1021.0 |
| 20260903095603 | 80 | 174 | 0.0 | 2.0 | 0.00 | 0.00 | 0.00 | 43 | 1021.3 |
| 20260903095503 | 81 | 193 | 0.0 | 2.0 | 0.00 | 0.00 | 0.00 | 44 | 1021.3 |
| 20260903095404 | 81 | 211 | 0.0 | 3.0 | 0.00 | 0.00 | 0.00 | 44 | 1021.2 |
| 20260903095306 | 80 | 233 | 0.0 | 3.0 | 0.00 | 0.00 | 0.00 | 44 | 1021.3 |
| 20260903095204 | 80 | 229 | 0.0 | 3.0 | 0.00 | 0.00 | 0.00 | 44 | 1021.4 |
| 20260903095103 | 80 | 241 | 0.0 | 4.0 | 0.00 | 0.00 | 0.00 | 44 | 1021.4 |
| 20260903095003 | 80 | 256 | 0.0 | 4.0 | 0.00 | 0.00 | 0.00 | 44 | 1021.4 |
| 20260903094904 | 80 | 268 | 0.0 | 4.0 | 0.00 | 0.00 | 0.00 | 44 | 1021.4 |
| 20260903094804 | 80 | 269 | 0.0 | 4.0 | 0.00 | 0.00 | 0.00 | 44 | 1021.3 |
| 20260903094703 | 80 | 269 | 0.0 | 4.0 | 0.00 | 0.00 | 0.00 | 43 | 1021.2 |
| 20260903094604 | 80 | 270 | 1.0 | 4.0 | 0.00 | 0.00 | 0.00 | 43 | 1021.4 |
| 20260903094504 | 80 | 264 | 1.0 | 4.0 | 0.00 | 0.00 | 0.00 | 43 | 1021.3 |
| 20260903094403 | 80 | 250 | 2.0 | 4.0 | 0.00 | 0.00 | 0.00 | 44 | 1021.4 |
| 20260903094304 | 80 | 230 | 1.0 | 4.0 | 0.00 | 0.00 | 0.00 | 43 | 1021.3 |
| 20260903094204 | 80 | 243 | 0.0 | 4.0 | 0.00 | 0.00 | 0.00 | 43 | 1021.3 |
| 20260903094103 | 80 | 246 | 3.0 | 4.0 | 0.00 | 0.00 | 0.00 | 43 | 1021.4 |
| 20260903094004 | 80 | 233 | 3.0 | 4.0 | 0.00 | 0.00 | 0.00 | 43 | 1021.4 |
| 20260903093904 | 80 | 200 | 0.0 | 1.0 | 0.00 | 0.00 | 0.00 | 45 | 1021.4 |
| 20260903093804 | 80 | 195 | 0.0 | 1.0 | 0.00 | 0.00 | 0.00 | 44 | 1021.4 |
| 20260903093703 | 80 | 231 | 0.0 | 1.0 | 0.00 | 0.00 | 0.00 | 44 | 1021.4 |
| 20260903093603 | 80 | 291 | 0.0 | 1.0 | 0.00 | 0.00 | 0.00 | 43 | 1021.4 |
| 20260903093504 | 80 | 314 | 0.0 | 1.0 | 0.00 | 0.00 | 0.00 | 43 | 1021.3 |
| 20260903093403 | 80 | 311 | 0.0 | 1.0 | 0.00 | 0.00 | 0.00 | 43 | 1021.5 |
| 20260903093304 | 80 | 302 | 0.0 | 1.0 | 0.00 | 0.00 | 0.00 | 43 | 1021.5 |
| 20260903093203 | 81 | 288 | 0.0 | 1.0 | 0.00 | 0.00 | 0.00 | 43 | 1021.4 |
| 20260903093103 | 81 | 269 | 0.0 | 1.0 | 0.00 | 0.00 | 0.00 | 43 | 1021.5 |
| 20260903093005 | 81 | 249 | 0.0 | 1.0 | 0.00 | 0.00 | 0.00 | 44 | 1021.5 |
| 20260903092903 | 80 | 225 | 0.0 | 1.0 | 0.00 | 0.00 | 0.00 | 43 | 1021.5 |
| 20260903092804 | 80 | 227 | 0.0 | 2.0 | 0.00 | 0.00 | 0.00 | 44 | 1021.3 |
| 20260903092704 | 80 | 236 | 0.0 | 2.0 | 0.00 | 0.00 | 0.00 | 44 | 1021.4 |
| 20260903092604 | 80 | 225 | 0.0 | 2.0 | 0.00 | 0.00 | 0.00 | 44 | 1021.5 |
| 20260903092503 | 80 | 212 | 0.0 | 2.0 | 0.00 | 0.00 | 0.00 | 44 | 1021.4 |
| 20260903092404 | 80 | 207 | 1.0 | 2.0 | 0.00 | 0.00 | 0.00 | 44 | 1021.3 |
| 20260903092306 | 80 | 210 | 0.0 | 2.0 | 0.00 | 0.00 | 0.00 | 44 | 1021.6 |
| 20260903092204 | 80 | 212 | 0.0 | 2.0 | 0.00 | 0.00 | 0.00 | 44 | 1021.5 |
| 20260903092104 | 80 | 212 | 0.0 | 2.0 | 0.00 | 0.00 | 0.00 | 44 | 1021.4 |
| 20260903092004 | 80 | 211 | 0.0 | 2.0 | 0.00 | 0.00 | 0.00 | 44 | 1021.4 |
| 20260903091904 | 80 | 209 | 0.0 | 2.0 | 0.00 | 0.00 | 0.00 | 43 | 1021.4 |
| 20260903091804 | 80 | 195 | 1.0 | 2.0 | 0.00 | 0.00 | 0.00 | 43 | 1021.6 |
| 20260903091703 | 80 | 183 | 1.0 | 2.0 | 0.00 | 0.00 | 0.00 | 44 | 1021.5 |
| 20260903091603 | 81 | 171 | 0.0 | 3.0 | 0.00 | 0.00 | 0.00 | 44 | 1021.4 |
| 20260903091503 | 81 | 171 | 0.0 | 3.0 | 0.00 | 0.00 | 0.00 | 44 | 1021.8 |
| 20260903091403 | 81 | 176 | 0.0 | 3.0 | 0.00 | 0.00 | 0.00 | 45 | 1021.4 |
| 20260903091303 | 81 | 181 | 0.0 | 3.0 | 0.00 | 0.00 | 0.00 | 46 | 1021.5 |
| 20260903091203 | 80 | 184 | 0.0 | 3.0 | 0.00 | 0.00 | 0.00 | 46 | 1021.5 |
| 20260903091103 | 80 | 189 | 0.0 | 3.0 | 0.00 | 0.00 | 0.00 | 46 | 1021.6 |
| 20260903091003 | 80 | 194 | 0.0 | 3.0 | 0.00 | 0.00 | 0.00 | 46 | 1021.5 |
| 20260903090904 | 80 | 191 | 0.0 | 3.0 | 0.00 | 0.00 | 0.00 | 45 | 1021.7 |
| 20260903090803 | 80 | 203 | 0.0 | 3.0 | 0.00 | 0.00 | 0.00 | 44 | 1021.6 |
| 20260903090704 | 80 | 198 | 0.0 | 3.0 | 0.00 | 0.00 | 0.00 | 43 | 1021.7 |
| 20260903090604 | 80 | 200 | 2.0 | 3.0 | 0.00 | 0.00 | 0.00 | 43 | 1021.7 |
| 20260903090503 | 79 | 205 | 0.0 | 2.0 | 0.00 | 0.00 | 0.00 | 45 | 1021.7 |
| 20260903090403 | 79 | 200 | 0.0 | 2.0 | 0.00 | 0.00 | 0.00 | 45 | 1021.8 |
| 20260903090304 | 79 | 197 | 0.0 | 2.0 | 0.00 | 0.00 | 0.00 | 45 | 1021.6 |
| 20260903090204 | 79 | 202 | 0.0 | 2.0 | 0.00 | 0.00 | 0.00 | 45 | 1021.6 |
| 20260903090103 | 79 | 202 | 0.0 | 2.0 | 0.00 | 0.00 | 0.00 | 45 | 1021.6 |
| 20260903090005 | 79 | 204 | 0.0 | 2.0 | 0.00 | 0.00 | 0.00 | 45 | 1021.8 |
| 20260903085903 | 79 | 208 | 1.0 | 2.0 | 0.00 | 0.00 | 0.00 | 45 | 1021.9 |
| 20260903085803 | 79 | 190 | 0.0 | 2.0 | 0.00 | 0.00 | 0.00 | 46 | 1021.7 |
| 20260903085703 | 79 | 187 | 1.0 | 2.0 | 0.00 | 0.00 | 0.00 | 45 | 1021.9 |
| 20260903085604 | 79 | 198 | 0.0 | 2.0 | 0.00 | 0.00 | 0.00 | 46 | 1021.8 |
| 20260903085504 | 79 | 205 | 0.0 | 2.0 | 0.00 | 0.00 | 0.00 | 45 | 1021.8 |
| 20260903085403 | 79 | 205 | 1.0 | 2.0 | 0.00 | 0.00 | 0.00 | 44 | 1021.8 |
| 20260903085306 | 79 | 203 | 1.0 | 2.0 | 0.00 | 0.00 | 0.00 | 45 | 1021.8 |
| 20260903085203 | 79 | 192 | 1.0 | 2.0 | 0.00 | 0.00 | 0.00 | 45 | 1021.6 |
| 20260903085103 | 79 | 199 | 0.0 | 2.0 | 0.00 | 0.00 | 0.00 | 47 | 1021.8 |
| 20260903085003 | 79 | 218 | 0.0 | 3.0 | 0.00 | 0.00 | 0.00 | 47 | 1021.7 |
| 20260903084903 | 79 | 223 | 0.0 | 3.0 | 0.00 | 0.00 | 0.00 | 47 | 1021.7 |
| 20260903084804 | 78 | 235 | 1.0 | 3.0 | 0.00 | 0.00 | 0.00 | 48 | 1021.7 |
| 20260903084703 | 78 | 250 | 0.0 | 3.0 | 0.00 | 0.00 | 0.00 | 48 | 1021.7 |
| 20260903084603 | 78 | 249 | 1.0 | 3.0 | 0.00 | 0.00 | 0.00 | 49 | 1021.6 |
| 20260903084503 | 78 | 230 | 0.0 | 3.0 | 0.00 | 0.00 | 0.00 | 50 | 1021.8 |
| 20260903084403 | 78 | 228 | 0.0 | 3.0 | 0.00 | 0.00 | 0.00 | 50 | 1021.7 |
| 20260903084304 | 77 | 237 | 0.0 | 3.0 | 0.00 | 0.00 | 0.00 | 50 | 1021.9 |
| 20260903084205 | 77 | 238 | 0.0 | 3.0 | 0.00 | 0.00 | 0.00 | 50 | 1021.6 |
| 20260903084103 | 77 | 207 | 1.0 | 3.0 | 0.00 | 0.00 | 0.00 | 50 | 1021.8 |
| 20260903084004 | 77 | 175 | 1.0 | 3.0 | 0.00 | 0.00 | 0.00 | 51 | 1021.5 |
| 20260903083904 | 76 | 173 | 0.0 | 2.0 | 0.00 | 0.00 | 0.00 | 51 | 1021.9 |
| 20260903083803 | 76 | 178 | 0.0 | 2.0 | 0.00 | 0.00 | 0.00 | 52 | 1021.7 |
| 20260903083703 | 76 | 177 | 0.0 | 2.0 | 0.00 | 0.00 | 0.00 | 52 | 1021.6 |
| 20260903083604 | 75 | 182 | 0.0 | 2.0 | 0.00 | 0.00 | 0.00 | 52 | 1021.6 |
| 20260903083503 | 74 | 184 | 0.0 | 2.0 | 0.00 | 0.00 | 0.00 | 52 | 1021.6 |
| 20260903083404 | 74 | 185 | 0.0 | 2.0 | 0.00 | 0.00 | 0.00 | 52 | 1021.7 |
| 20260903083304 | 74 | 184 | 0.0 | 3.0 | 0.00 | 0.00 | 0.00 | 52 | 1021.7 |
| 20260903083203 | 74 | 190 | 0.0 | 3.0 | 0.00 | 0.00 | 0.00 | 52 | 1021.9 |
| 20260903083103 | 74 | 186 | 1.0 | 3.0 | 0.00 | 0.00 | 0.00 | 52 | 1021.6 |
| 20260903083005 | 74 | 196 | 1.0 | 3.0 | 0.00 | 0.00 | 0.00 | 52 | 1021.8 |
| 20260903082904 | 73 | 188 | 0.0 | 3.0 | 0.00 | 0.00 | 0.00 | 52 | 1021.8 |
| 20260903082803 | 73 | 175 | 0.0 | 3.0 | 0.00 | 0.00 | 0.00 | 52 | 1021.8 |
| 20260903082703 | 73 | 172 | 0.0 | 3.0 | 0.00 | 0.00 | 0.00 | 52 | 1021.6 |
| 20260903082603 | 73 | 169 | 0.0 | 3.0 | 0.00 | 0.00 | 0.00 | 52 | 1021.7 |
| 20260903082503 | 73 | 161 | 0.0 | 3.0 | 0.00 | 0.00 | 0.00 | 52 | 1021.5 |
| 20260903082403 | 73 | 154 | 0.0 | 3.0 | 0.00 | 0.00 | 0.00 | 52 | 1021.6 |
| 20260903082306 | 73 | 143 | 2.0 | 3.0 | 0.00 | 0.00 | 0.00 | 51 | 1021.7 |
| 20260903082204 | 73 | 131 | 2.0 | 3.0 | 0.00 | 0.00 | 0.00 | 51 | 1021.6 |
| 20260903082104 | 74 | 133 | 2.0 | 3.0 | 0.00 | 0.00 | 0.00 | 51 | 1021.8 |
| 20260903082005 | 74 | 135 | 0.0 | 3.0 | 0.00 | 0.00 | 0.00 | 51 | 1021.8 |
| 20260903081904 | 74 | 137 | 1.0 | 3.0 | 0.00 | 0.00 | 0.00 | 51 | 1021.7 |
| 20260903081804 | 74 | 138 | 1.0 | 3.0 | 0.00 | 0.00 | 0.00 | 52 | 1021.7 |
| 20260903081704 | 74 | 135 | 0.0 | 3.0 | 0.00 | 0.00 | 0.00 | 52 | 1021.6 |
| 20260903081603 | 74 | 132 | 0.0 | 3.0 | 0.00 | 0.00 | 0.00 | 52 | 1021.5 |
| 20260903081503 | 74 | 135 | 1.0 | 3.0 | 0.00 | 0.00 | 0.00 | 50 | 1021.7 |
| 20260903081404 | 75 | 135 | 0.0 | 3.0 | 0.00 | 0.00 | 0.00 | 50 | 1021.6 |
| 20260903081303 | 75 | 135 | 1.0 | 3.0 | 0.00 | 0.00 | 0.00 | 50 | 1021.7 |
| 20260903081203 | 75 | 141 | 1.0 | 2.0 | 0.00 | 0.00 | 0.00 | 50 | 1021.8 |
| 20260903081103 | 76 | 143 | 0.0 | 2.0 | 0.00 | 0.00 | 0.00 | 50 | 1021.8 |
| 20260903081003 | 76 | 141 | 0.0 | 2.0 | 0.00 | 0.00 | 0.00 | 50 | 1021.8 |
| 20260903080903 | 76 | 141 | 0.0 | 2.0 | 0.00 | 0.00 | 0.00 | 50 | 1021.7 |
| 20260903080804 | 76 | 143 | 0.0 | 2.0 | 0.00 | 0.00 | 0.00 | 50 | 1021.7 |
| 20260903080703 | 76 | 145 | 1.0 | 2.0 | 0.00 | 0.00 | 0.00 | 50 | 1021.7 |
| 20260903080604 | 76 | 146 | 1.0 | 2.0 | 0.00 | 0.00 | 0.00 | 50 | 1021.6 |
| 20260903080504 | 78 | 139 | 0.0 | 1.0 | 0.00 | 0.00 | 0.00 | 50 | 1021.5 |
| 20260903080404 | 78 | 139 | 0.0 | 1.0 | 0.00 | 0.00 | 0.00 | 50 | 1021.6 |
| 20260903080304 | 78 | 139 | 0.0 | 1.0 | 0.00 | 0.00 | 0.00 | 50 | 1021.7 |
| 20260903080204 | 78 | 139 | 0.0 | 1.0 | 0.00 | 0.00 | 0.00 | 50 | 1021.7 |
| 20260903080006 | 78 | 144 | 0.0 | 1.0 | 0.00 | 0.00 | 0.00 | 50 | 1021.5 |
| 20260903075903 | 78 | 146 | 0.0 | 1.0 | 0.00 | 0.00 | 0.00 | 50 | 1021.7 |
| 20260903075805 | 78 | 144 | 0.0 | 1.0 | 0.00 | 0.00 | 0.00 | 50 | 1021.7 |
| 20260903075704 | 78 | 150 | 0.0 | 1.0 | 0.00 | 0.00 | 0.00 | 50 | 1021.5 |
| 20260903075603 | 78 | 166 | 0.0 | 1.0 | 0.00 | 0.00 | 0.00 | 50 | 1021.6 |
| 20260903075503 | 78 | 186 | 0.0 | 1.0 | 0.00 | 0.00 | 0.00 | 51 | 1021.7 |
| 20260903075404 | 77 | 197 | 0.0 | 1.0 | 0.00 | 0.00 | 0.00 | 51 | 1021.7 |
| 20260903075306 | 77 | 199 | 0.0 | 1.0 | 0.00 | 0.00 | 0.00 | 52 | 1021.8 |
| 20260903075204 | 77 | 202 | 0.0 | 1.0 | 0.00 | 0.00 | 0.00 | 52 | 1021.8 |
| 20260903075103 | 76 | 201 | 0.0 | 1.0 | 0.00 | 0.00 | 0.00 | 51 | 1021.6 |
| 20260903075004 | 76 | 201 | 0.0 | 1.0 | 0.00 | 0.00 | 0.00 | 51 | 1021.5 |
| 20260903074904 | 76 | 197 | 0.0 | 1.0 | 0.00 | 0.00 | 0.00 | 51 | 1021.7 |
| 20260903074804 | 76 | 193 | 0.0 | 1.0 | 0.00 | 0.00 | 0.00 | 51 | 1021.5 |
| 20260903074703 | 76 | 183 | 0.0 | 2.0 | 0.00 | 0.00 | 0.00 | 51 | 1021.7 |
| 20260903074603 | 76 | 163 | 1.0 | 2.0 | 0.00 | 0.00 | 0.00 | 52 | 1021.5 |
| 20260903074503 | 76 | 149 | 0.0 | 2.0 | 0.00 | 0.00 | 0.00 | 52 | 1021.7 |
| 20260903074403 | 76 | 147 | 0.0 | 2.0 | 0.00 | 0.00 | 0.00 | 52 | 1021.6 |
| 20260903074303 | 75 | 149 | 0.0 | 2.0 | 0.00 | 0.00 | 0.00 | 52 | 1021.7 |
| 20260903074204 | 75 | 158 | 0.0 | 2.0 | 0.00 | 0.00 | 0.00 | 52 | 1021.7 |
| 20260903074103 | 75 | 152 | 0.0 | 3.0 | 0.00 | 0.00 | 0.00 | 53 | 1021.8 |
| 20260903074003 | 75 | 147 | 0.0 | 3.0 | 0.00 | 0.00 | 0.00 | 53 | 1021.5 |
| 20260903073903 | 74 | 147 | 0.0 | 3.0 | 0.00 | 0.00 | 0.00 | 53 | 1021.6 |
| 20260903073803 | 74 | 146 | 0.0 | 3.0 | 0.00 | 0.00 | 0.00 | 53 | 1021.5 |
| 20260903073704 | 74 | 147 | 1.0 | 3.0 | 0.00 | 0.00 | 0.00 | 53 | 1021.7 |
| 20260903073604 | 74 | 147 | 0.0 | 3.0 | 0.00 | 0.00 | 0.00 | 53 | 1021.4 |
| 20260903073503 | 74 | 148 | 0.0 | 3.0 | 0.00 | 0.00 | 0.00 | 53 | 1021.5 |
| 20260903073404 | 74 | 144 | 0.0 | 3.0 | 0.00 | 0.00 | 0.00 | 53 | 1021.5 |
| 20260903073304 | 74 | 142 | 0.0 | 3.0 | 0.00 | 0.00 | 0.00 | 52 | 1021.3 |
| 20260903073203 | 74 | 133 | 1.0 | 3.0 | 0.00 | 0.00 | 0.00 | 52 | 1021.5 |
| 20260903073104 | 75 | 134 | 1.0 | 3.0 | 0.00 | 0.00 | 0.00 | 53 | 1021.4 |
| 20260903073005 | 74 | 139 | 0.0 | 3.0 | 0.00 | 0.00 | 0.00 | 53 | 1021.5 |
| 20260903072903 | 74 | 139 | 0.0 | 3.0 | 0.00 | 0.00 | 0.00 | 54 | 1021.4 |
| 20260903072804 | 74 | 141 | 0.0 | 3.0 | 0.00 | 0.00 | 0.00 | 54 | 1021.5 |
| 20260903072704 | 74 | 143 | 1.0 | 3.0 | 0.00 | 0.00 | 0.00 | 55 | 1021.5 |
| 20260903072603 | 74 | 144 | 0.0 | 3.0 | 0.00 | 0.00 | 0.00 | 55 | 1021.6 |
| 20260903072504 | 74 | 144 | 0.0 | 3.0 | 0.00 | 0.00 | 0.00 | 55 | 1021.5 |
| 20260903072404 | 74 | 145 | 0.0 | 3.0 | 0.00 | 0.00 | 0.00 | 55 | 1021.5 |
| 20260903072306 | 74 | 147 | 1.0 | 3.0 | 0.00 | 0.00 | 0.00 | 58 | 1021.5 |
| 20260903072203 | 74 | 155 | 2.0 | 3.0 | 0.00 | 0.00 | 0.00 | 59 | 1021.6 |
| 20260903072103 | 74 | 166 | 0.0 | 2.0 | 0.00 | 0.00 | 0.00 | 60 | 1021.4 |
| 20260903072003 | 73 | 160 | 1.0 | 3.0 | 0.00 | 0.00 | 0.00 | 60 | 1021.6 |
| 20260903071904 | 73 | 173 | 0.0 | 3.0 | 0.00 | 0.00 | 0.00 | 61 | 1021.6 |
| 20260903071803 | 72 | 173 | 0.0 | 3.0 | 0.00 | 0.00 | 0.00 | 65 | 1021.6 |
| 20260903071703 | 72 | 169 | 0.0 | 3.0 | 0.00 | 0.00 | 0.00 | 65 | 1021.6 |
| 20260903071604 | 72 | 169 | 0.0 | 3.0 | 0.00 | 0.00 | 0.00 | 66 | 1021.7 |
| 20260903071503 | 71 | 170 | 0.0 | 3.0 | 0.00 | 0.00 | 0.00 | 67 | 1021.6 |
| 20260903071403 | 71 | 170 | 0.0 | 3.0 | 0.00 | 0.00 | 0.00 | 66 | 1021.6 |
| 20260903071304 | 70 | 170 | 0.0 | 3.0 | 0.00 | 0.00 | 0.00 | 66 | 1021.7 |
| 20260903071204 | 70 | 170 | 0.0 | 3.0 | 0.00 | 0.00 | 0.00 | 66 | 1021.7 |
| 20260903071105 | 69 | 169 | 2.0 | 3.0 | 0.00 | 0.00 | 0.00 | 67 | 1021.6 |
| 20260903071004 | 69 | 172 | 0.0 | 3.0 | 0.00 | 0.00 | 0.00 | 69 | 1021.6 |
| 20260903070905 | 68 | 155 | 0.0 | 3.0 | 0.00 | 0.00 | 0.00 | 69 | 1021.6 |
| 20260903070805 | 68 | 153 | 0.0 | 3.0 | 0.00 | 0.00 | 0.00 | 70 | 1021.6 |
| 20260903070704 | 67 | 160 | 0.0 | 3.0 | 0.00 | 0.00 | 0.00 | 70 | 1021.6 |
| 20260903070604 | 67 | 166 | 2.0 | 3.0 | 0.00 | 0.00 | 0.00 | 70 | 1021.7 |
| 20260903070503 | 65 | 154 | 0.0 | 2.0 | 0.00 | 0.00 | 0.00 | 69 | 1021.7 |
| 20260903070405 | 65 | 147 | 0.0 | 2.0 | 0.00 | 0.00 | 0.00 | 69 | 1021.7 |
| 20260903070303 | 65 | 149 | 0.0 | 2.0 | 0.00 | 0.00 | 0.00 | 69 | 1021.6 |
| 20260903070203 | 65 | 151 | 0.0 | 2.0 | 0.00 | 0.00 | 0.00 | 69 | 1021.7 |
| 20260903070103 | 65 | 151 | 0.0 | 2.0 | 0.00 | 0.00 | 0.00 | 69 | 1021.7 |
| 20260903070006 | 65 | 149 | 0.0 | 2.0 | 0.00 | 0.00 | 0.00 | 69 | 1021.8 |
| 20260903065903 | 65 | 148 | 0.0 | 2.0 | 0.00 | 0.00 | 0.00 | 69 | 1021.6 |
| 20260903065804 | 65 | 148 | 0.0 | 2.0 | 0.00 | 0.00 | 0.00 | 70 | 1021.8 |
| 20260903065703 | 65 | 148 | 1.0 | 2.0 | 0.00 | 0.00 | 0.00 | 70 | 1021.6 |
| 20260903065603 | 65 | 142 | 0.0 | 1.0 | 0.00 | 0.00 | 0.00 | 70 | 1021.7 |
| 20260903065503 | 65 | 142 | 0.0 | 1.0 | 0.00 | 0.00 | 0.00 | 70 | 1021.6 |
| 20260903065404 | 65 | 150 | 0.0 | 1.0 | 0.00 | 0.00 | 0.00 | 70 | 1021.8 |
| 20260903065306 | 65 | 148 | 0.0 | 1.0 | 0.00 | 0.00 | 0.00 | 70 | 1021.8 |
| 20260903065204 | 65 | 146 | 0.0 | 1.0 | 0.00 | 0.00 | 0.00 | 70 | 1021.6 |
| 20260903065104 | 65 | 152 | 0.0 | 1.0 | 0.00 | 0.00 | 0.00 | 70 | 1021.7 |
| 20260903065003 | 65 | 157 | 0.0 | 1.0 | 0.00 | 0.00 | 0.00 | 70 | 1022.0 |
| 20260903064903 | 65 | 163 | 0.0 | 1.0 | 0.00 | 0.00 | 0.00 | 70 | 1021.7 |
| 20260903064804 | 65 | 166 | 0.0 | 1.0 | 0.00 | 0.00 | 0.00 | 70 | 1021.8 |
| 20260903064703 | 65 | 160 | 0.0 | 1.0 | 0.00 | 0.00 | 0.00 | 71 | 1022.0 |
| 20260903064604 | 65 | 152 | 0.0 | 1.0 | 0.00 | 0.00 | 0.00 | 71 | 1021.7 |
| 20260903064504 | 65 | 152 | 0.0 | 1.0 | 0.00 | 0.00 | 0.00 | 71 | 1021.7 |
| 20260903064403 | 65 | 153 | 0.0 | 1.0 | 0.00 | 0.00 | 0.00 | 71 | 1021.8 |
| 20260903064303 | 65 | 155 | 0.0 | 1.0 | 0.00 | 0.00 | 0.00 | 71 | 1021.7 |
| 20260903064204 | 65 | 154 | 0.0 | 1.0 | 0.00 | 0.00 | 0.00 | 71 | 1021.7 |
| 20260903064105 | 64 | 142 | 0.0 | 1.0 | 0.00 | 0.00 | 0.00 | 71 | 1021.8 |
| 20260903064003 | 64 | 139 | 0.0 | 1.0 | 0.00 | 0.00 | 0.00 | 71 | 1021.7 |
| 20260903063904 | 64 | 147 | 0.0 | 1.0 | 0.00 | 0.00 | 0.00 | 71 | 1021.8 |
| 20260903063803 | 64 | 148 | 0.0 | 1.0 | 0.00 | 0.00 | 0.00 | 71 | 1021.9 |
| 20260903063703 | 64 | 148 | 0.0 | 1.0 | 0.00 | 0.00 | 0.00 | 71 | 1021.8 |
| 20260903063604 | 64 | 161 | 0.0 | 1.0 | 0.00 | 0.00 | 0.00 | 72 | 1021.9 |
| 20260903063503 | 64 | 165 | 0.0 | 0.0 | 0.00 | 0.00 | 0.00 | 72 | 1021.8 |
| 20260903063403 | 64 | 165 | 0.0 | 0.0 | 0.00 | 0.00 | 0.00 | 72 | 1022.0 |
| 20260903063303 | 64 | 165 | 0.0 | 0.0 | 0.00 | 0.00 | 0.00 | 72 | 1021.9 |
| 20260903063203 | 64 | 165 | 0.0 | 0.0 | 0.00 | 0.00 | 0.00 | 72 | 1021.8 |
| 20260903063103 | 64 | 165 | 0.0 | 0.0 | 0.00 | 0.00 | 0.00 | 72 | 1021.7 |
| 20260903063005 | 64 | 162 | 0.0 | 0.0 | 0.00 | 0.00 | 0.00 | 72 | 1021.8 |
| 20260903062904 | 64 | 147 | 0.0 | 0.0 | 0.00 | 0.00 | 0.00 | 72 | 1021.9 |
| 20260903062804 | 64 | 135 | 0.0 | 0.0 | 0.00 | 0.00 | 0.00 | 72 | 1021.5 |
| 20260903062703 | 64 | 0 | 0.0 | 0.0 | 0.00 | 0.00 | 0.00 | 72 | 1021.7 |
| 20260903062604 | 63 | 0 | 0.0 | 0.0 | 0.00 | 0.00 | 0.00 | 75 | 1021.7 |
| 20260903062504 | 63 | 0 | 0.0 | 0.0 | 0.00 | 0.00 | 0.00 | 75 | 1021.7 |
| 20260903062404 | 63 | 0 | 0.0 | 0.0 | 0.00 | 0.00 | 0.00 | 74 | 1021.7 |
| 20260903062306 | 63 | 0 | 0.0 | 0.0 | 0.00 | 0.00 | 0.00 | 74 | 1021.7 |
| 20260903062203 | 63 | 0 | 0.0 | 0.0 | 0.00 | 0.00 | 0.00 | 74 | 1021.8 |
| 20260903062103 | 63 | 0 | 0.0 | 0.0 | 0.00 | 0.00 | 0.00 | 75 | 1021.7 |
| 20260903062004 | 64 | 0 | 0.0 | 0.0 | 0.00 | 0.00 | 0.00 | 72 | 1021.7 |
| 20260903061904 | 64 | 0 | 0.0 | 0.0 | 0.00 | 0.00 | 0.00 | 72 | 1021.7 |
| 20260903061804 | 64 | 0 | 0.0 | 0.0 | 0.00 | 0.00 | 0.00 | 72 | 1021.7 |
| 20260903061704 | 64 | 0 | 0.0 | 0.0 | 0.00 | 0.00 | 0.00 | 72 | 1021.8 |
| 20260903061603 | 64 | 181 | 0.0 | 0.0 | 0.00 | 0.00 | 0.00 | 72 | 1021.8 |
| 20260903061504 | 64 | 181 | 0.0 | 0.0 | 0.00 | 0.00 | 0.00 | 72 | 1021.8 |
| 20260903061404 | 64 | 181 | 0.0 | 0.0 | 0.00 | 0.00 | 0.00 | 73 | 1021.9 |
| 20260903061305 | 64 | 181 | 0.0 | 0.0 | 0.00 | 0.00 | 0.00 | 73 | 1021.7 |
| 20260903061204 | 64 | 181 | 0.0 | 0.0 | 0.00 | 0.00 | 0.00 | 73 | 1021.8 |
| 20260903061104 | 64 | 181 | 0.0 | 0.0 | 0.00 | 0.00 | 0.00 | 73 | 1021.7 |
| 20260903061003 | 64 | 181 | 0.0 | 0.0 | 0.00 | 0.00 | 0.00 | 73 | 1021.8 |
| 20260903060903 | 64 | 181 | 0.0 | 0.0 | 0.00 | 0.00 | 0.00 | 73 | 1021.7 |
| 20260903060803 | 64 | 181 | 0.0 | 0.0 | 0.00 | 0.00 | 0.00 | 73 | 1021.8 |
| 20260903060703 | 64 | 181 | 0.0 | 0.0 | 0.00 | 0.00 | 0.00 | 73 | 1021.8 |
| 20260903060603 | 64 | 175 | 0.0 | 0.0 | 0.00 | 0.00 | 0.00 | 73 | 1021.7 |
| 20260903060504 | 63 | 175 | 0.0 | 0.0 | 0.00 | 0.00 | 0.00 | 78 | 1021.8 |
| 20260903060404 | 63 | 172 | 0.0 | 0.0 | 0.00 | 0.00 | 0.00 | 78 | 1021.8 |
| 20260903060305 | 63 | 165 | 0.0 | 0.0 | 0.00 | 0.00 | 0.00 | 78 | 1021.7 |
| 20260903060203 | 63 | 161 | 0.0 | 0.0 | 0.00 | 0.00 | 0.00 | 78 | 1021.7 |
| 20260903060105 | 63 | 158 | 0.0 | 0.0 | 0.00 | 0.00 | 0.00 | 78 | 1021.8 |
| 20260903060006 | 63 | 152 | 0.0 | 0.0 | 0.00 | 0.00 | 0.00 | 78 | 1021.8 |
| 20260903055904 | 63 | 156 | 0.0 | 1.0 | 0.00 | 0.00 | 0.00 | 79 | 1021.8 |
| 20260903055803 | 63 | 162 | 0.0 | 1.0 | 0.00 | 0.00 | 0.00 | 79 | 1021.7 |
| 20260903055704 | 63 | 162 | 0.0 | 1.0 | 0.00 | 0.00 | 0.00 | 79 | 1021.7 |
| 20260903055604 | 63 | 165 | 0.0 | 1.0 | 0.00 | 0.00 | 0.00 | 80 | 1021.7 |
| 20260903055504 | 63 | 166 | 0.0 | 1.0 | 0.00 | 0.00 | 0.00 | 80 | 1021.7 |
| 20260903055403 | 63 | 168 | 0.0 | 1.0 | 0.00 | 0.00 | 0.00 | 80 | 1021.6 |
| 20260903055306 | 63 | 168 | 0.0 | 1.0 | 0.00 | 0.00 | 0.00 | 80 | 1021.8 |
| 20260903055203 | 63 | 165 | 0.0 | 1.0 | 0.00 | 0.00 | 0.00 | 80 | 1021.8 |
| 20260903055103 | 62 | 163 | 0.0 | 1.0 | 0.00 | 0.00 | 0.00 | 81 | 1021.8 |
| 20260903055004 | 62 | 163 | 0.0 | 1.0 | 0.00 | 0.00 | 0.00 | 81 | 1022.0 |
| 20260903054904 | 62 | 159 | 0.0 | 1.0 | 0.00 | 0.00 | 0.00 | 81 | 1021.9 |
| 20260903054804 | 62 | 141 | 0.0 | 1.0 | 0.00 | 0.00 | 0.00 | 81 | 1021.8 |
| 20260903054704 | 62 | 135 | 0.0 | 0.0 | 0.00 | 0.00 | 0.00 | 81 | 1021.8 |
| 20260903054604 | 62 | 135 | 0.0 | 0.0 | 0.00 | 0.00 | 0.00 | 81 | 1021.8 |
| 20260903054504 | 62 | 135 | 0.0 | 0.0 | 0.00 | 0.00 | 0.00 | 81 | 1021.9 |
| 20260903054404 | 62 | 135 | 0.0 | 0.0 | 0.00 | 0.00 | 0.00 | 81 | 1021.9 |
| 20260903054304 | 61 | 135 | 0.0 | 0.0 | 0.00 | 0.00 | 0.00 | 82 | 1021.7 |
| 20260903054203 | 61 | 135 | 0.0 | 0.0 | 0.00 | 0.00 | 0.00 | 82 | 1021.8 |
| 20260903054103 | 61 | 135 | 0.0 | 0.0 | 0.00 | 0.00 | 0.00 | 82 | 1022.0 |
| 20260903054003 | 61 | 135 | 0.0 | 0.0 | 0.00 | 0.00 | 0.00 | 82 | 1021.9 |
| 20260903053905 | 61 | 135 | 0.0 | 0.0 | 0.00 | 0.00 | 0.00 | 83 | 1021.7 |
| 20260903053804 | 61 | 135 | 0.0 | 0.0 | 0.00 | 0.00 | 0.00 | 83 | 1021.8 |
| 20260903053703 | 61 | 137 | 0.0 | 0.0 | 0.00 | 0.00 | 0.00 | 83 | 1021.9 |
| 20260903053603 | 61 | 144 | 0.0 | 0.0 | 0.00 | 0.00 | 0.00 | 83 | 1021.8 |
| 20260903053505 | 61 | 144 | 0.0 | 0.0 | 0.00 | 0.00 | 0.00 | 83 | 1021.7 |
| 20260903053403 | 60 | 145 | 0.0 | 0.0 | 0.00 | 0.00 | 0.00 | 83 | 1021.7 |
| 20260903053304 | 60 | 151 | 0.0 | 0.0 | 0.00 | 0.00 | 0.00 | 83 | 1021.9 |
| 20260903053204 | 60 | 171 | 0.0 | 0.0 | 0.00 | 0.00 | 0.00 | 83 | 1021.7 |
| 20260903053104 | 60 | 181 | 0.0 | 0.0 | 0.00 | 0.00 | 0.00 | 84 | 1021.7 |
| 20260903053007 | 60 | 181 | 0.0 | 0.0 | 0.00 | 0.00 | 0.00 | 84 | 1021.8 |
| 20260903052904 | 60 | 196 | 0.0 | 0.0 | 0.00 | 0.00 | 0.00 | 84 | 1021.7 |
| 20260903052803 | 60 | 196 | 0.0 | 0.0 | 0.00 | 0.00 | 0.00 | 84 | 1021.7 |
| 20260903052705 | 60 | 196 | 0.0 | 0.0 | 0.00 | 0.00 | 0.00 | 84 | 1021.7 |
| 20260903052603 | 60 | 195 | 0.0 | 0.0 | 0.00 | 0.00 | 0.00 | 84 | 1021.8 |
| 20260903052503 | 60 | 191 | 0.0 | 0.0 | 0.00 | 0.00 | 0.00 | 84 | 1021.8 |
| 20260903052403 | 60 | 191 | 0.0 | 0.0 | 0.00 | 0.00 | 0.00 | 84 | 1021.7 |
| 20260903052306 | 60 | 191 | 0.0 | 0.0 | 0.00 | 0.00 | 0.00 | 84 | 1021.6 |
| 20260903052204 | 60 | 191 | 0.0 | 0.0 | 0.00 | 0.00 | 0.00 | 84 | 1021.7 |
| 20260903052104 | 60 | 191 | 0.0 | 0.0 | 0.00 | 0.00 | 0.00 | 84 | 1021.6 |
| 20260903052004 | 59 | 194 | 0.0 | 0.0 | 0.00 | 0.00 | 0.00 | 84 | 1021.8 |
| 20260903051905 | 59 | 181 | 0.0 | 0.0 | 0.00 | 0.00 | 0.00 | 84 | 1021.7 |
| 20260903051803 | 59 | 181 | 0.0 | 0.0 | 0.00 | 0.00 | 0.00 | 84 | 1021.6 |
| 20260903051704 | 59 | 181 | 0.0 | 0.0 | 0.00 | 0.00 | 0.00 | 84 | 1021.7 |
| 20260903051604 | 59 | 157 | 0.0 | 0.0 | 0.00 | 0.00 | 0.00 | 84 | 1021.7 |
| 20260903051503 | 59 | 135 | 0.0 | 0.0 | 0.00 | 0.00 | 0.00 | 84 | 1021.7 |
| 20260903051403 | 59 | 135 | 0.0 | 0.0 | 0.00 | 0.00 | 0.00 | 84 | 1021.8 |
| 20260903051303 | 59 | 135 | 0.0 | 0.0 | 0.00 | 0.00 | 0.00 | 84 | 1021.8 |
| 20260903051203 | 59 | 135 | 0.0 | 0.0 | 0.00 | 0.00 | 0.00 | 84 | 1021.8 |
| 20260903051104 | 58 | 135 | 0.0 | 0.0 | 0.00 | 0.00 | 0.00 | 84 | 1021.6 |
| 20260903051003 | 58 | 135 | 0.0 | 0.0 | 0.00 | 0.00 | 0.00 | 84 | 1021.8 |
| 20260903050903 | 58 | 135 | 0.0 | 0.0 | 0.00 | 0.00 | 0.00 | 84 | 1021.8 |
| 20260903050803 | 58 | 135 | 0.0 | 0.0 | 0.00 | 0.00 | 0.00 | 84 | 1021.7 |
| 20260903050704 | 58 | 135 | 0.0 | 0.0 | 0.00 | 0.00 | 0.00 | 84 | 1021.7 |
| 20260903050603 | 58 | 135 | 0.0 | 0.0 | 0.00 | 0.00 | 0.00 | 84 | 1021.6 |
| 20260903050504 | 58 | 0 | 0.0 | 0.0 | 0.00 | 0.00 | 0.00 | 84 | 1021.8 |
| 20260903050403 | 58 | 0 | 0.0 | 0.0 | 0.00 | 0.00 | 0.00 | 84 | 1021.6 |
| 20260903050304 | 58 | 0 | 0.0 | 0.0 | 0.00 | 0.00 | 0.00 | 84 | 1021.8 |
| 20260903050205 | 58 | 0 | 0.0 | 0.0 | 0.00 | 0.00 | 0.00 | 84 | 1021.6 |
| 20260903050006 | 58 | 0 | 0.0 | 0.0 | 0.00 | 0.00 | 0.00 | 84 | 1021.8 |
| 20260903045904 | 57 | 0 | 0.0 | 0.0 | 0.00 | 0.00 | 0.00 | 84 | 1021.6 |
| 20260903045803 | 57 | 0 | 0.0 | 0.0 | 0.00 | 0.00 | 0.00 | 84 | 1021.6 |
| 20260903045704 | 57 | 117 | 0.0 | 2.0 | 0.00 | 0.00 | 0.00 | 84 | 1021.6 |
| 20260903045603 | 57 | 124 | 0.0 | 2.0 | 0.00 | 0.00 | 0.00 | 84 | 1021.7 |
| 20260903045504 | 57 | 165 | 0.0 | 2.0 | 0.00 | 0.00 | 0.00 | 84 | 1021.6 |
| 20260903045403 | 57 | 168 | 0.0 | 2.0 | 0.00 | 0.00 | 0.00 | 84 | 1021.5 |
| 20260903045306 | 57 | 174 | 0.0 | 2.0 | 0.00 | 0.00 | 0.00 | 84 | 1021.6 |
| 20260903045204 | 57 | 174 | 0.0 | 2.0 | 0.00 | 0.00 | 0.00 | 84 | 1021.8 |
| 20260903045103 | 57 | 175 | 0.0 | 2.0 | 0.00 | 0.00 | 0.00 | 83 | 1021.7 |
| 20260903045003 | 57 | 170 | 0.0 | 2.0 | 0.00 | 0.00 | 0.00 | 83 | 1021.6 |
| 20260903044904 | 57 | 166 | 0.0 | 2.0 | 0.00 | 0.00 | 0.00 | 83 | 1021.6 |
| 20260903044804 | 57 | 163 | 0.0 | 2.0 | 0.00 | 0.00 | 0.00 | 83 | 1021.6 |
| 20260903044705 | 57 | 162 | 1.0 | 2.0 | 0.00 | 0.00 | 0.00 | 83 | 1021.6 |
| 20260903044605 | 57 | 174 | 0.0 | 2.0 | 0.00 | 0.00 | 0.00 | 83 | 1021.7 |
| 20260903044504 | 57 | 169 | 0.0 | 0.0 | 0.00 | 0.00 | 0.00 | 83 | 1021.6 |
| 20260903044404 | 57 | 166 | 0.0 | 0.0 | 0.00 | 0.00 | 0.00 | 83 | 1021.5 |
| 20260903044303 | 57 | 161 | 0.0 | 0.0 | 0.00 | 0.00 | 0.00 | 83 | 1021.4 |
| 20260903044204 | 57 | 158 | 0.0 | 0.0 | 0.00 | 0.00 | 0.00 | 83 | 1021.5 |
| 20260903044104 | 56 | 155 | 0.0 | 0.0 | 0.00 | 0.00 | 0.00 | 83 | 1021.7 |
| 20260903044005 | 56 | 157 | 0.0 | 0.0 | 0.00 | 0.00 | 0.00 | 83 | 1021.4 |
| 20260903043903 | 56 | 167 | 0.0 | 0.0 | 0.00 | 0.00 | 0.00 | 83 | 1021.7 |
| 20260903043804 | 56 | 187 | 0.0 | 0.0 | 0.00 | 0.00 | 0.00 | 83 | 1021.5 |
| 20260903043703 | 56 | 214 | 0.0 | 0.0 | 0.00 | 0.00 | 0.00 | 83 | 1021.5 |
| 20260903043603 | 56 | 225 | 0.0 | 0.0 | 0.00 | 0.00 | 0.00 | 83 | 1021.4 |
| 20260903043504 | 56 | 90 | 0.0 | 0.0 | 0.00 | 0.00 | 0.00 | 82 | 1021.6 |
| 20260903043403 | 56 | 181 | 0.0 | 0.0 | 0.00 | 0.00 | 0.00 | 82 | 1021.4 |
| 20260903043304 | 56 | 181 | 0.0 | 0.0 | 0.00 | 0.00 | 0.00 | 82 | 1021.5 |
| 20260903043204 | 56 | 181 | 0.0 | 0.0 | 0.00 | 0.00 | 0.00 | 82 | 1021.4 |
| 20260903043103 | 56 | 181 | 0.0 | 0.0 | 0.00 | 0.00 | 0.00 | 82 | 1021.4 |
| 20260903043005 | 56 | 181 | 0.0 | 0.0 | 0.00 | 0.00 | 0.00 | 82 | 1021.5 |
| 20260903042905 | 56 | 181 | 0.0 | 0.0 | 0.00 | 0.00 | 0.00 | 82 | 1021.4 |
| 20260903042804 | 56 | 181 | 0.0 | 0.0 | 0.00 | 0.00 | 0.00 | 82 | 1021.4 |
| 20260903042703 | 56 | 181 | 0.0 | 0.0 | 0.00 | 0.00 | 0.00 | 82 | 1021.3 |
| 20260903042603 | 56 | 181 | 0.0 | 0.0 | 0.00 | 0.00 | 0.00 | 82 | 1021.4 |
| 20260903042504 | 56 | 181 | 0.0 | 0.0 | 0.00 | 0.00 | 0.00 | 82 | 1021.4 |
| 20260903042403 | 56 | 181 | 0.0 | 0.0 | 0.00 | 0.00 | 0.00 | 82 | 1021.5 |
| 20260903042306 | 56 | 181 | 0.0 | 0.0 | 0.00 | 0.00 | 0.00 | 82 | 1021.5 |
| 20260903042204 | 56 | 181 | 0.0 | 0.0 | 0.00 | 0.00 | 0.00 | 82 | 1021.3 |
| 20260903042103 | 56 | 181 | 0.0 | 0.0 | 0.00 | 0.00 | 0.00 | 82 | 1021.5 |
| 20260903042004 | 56 | 181 | 0.0 | 0.0 | 0.00 | 0.00 | 0.00 | 83 | 1021.2 |
| 20260903041903 | 56 | 181 | 0.0 | 0.0 | 0.00 | 0.00 | 0.00 | 83 | 1021.5 |
| 20260903041804 | 56 | 181 | 0.0 | 0.0 | 0.00 | 0.00 | 0.00 | 83 | 1021.5 |
| 20260903041704 | 56 | 181 | 0.0 | 0.0 | 0.00 | 0.00 | 0.00 | 83 | 1021.6 |
| 20260903041603 | 56 | 181 | 0.0 | 0.0 | 0.00 | 0.00 | 0.00 | 83 | 1021.3 |
| 20260903041504 | 56 | 0 | 0.0 | 0.0 | 0.00 | 0.00 | 0.00 | 83 | 1021.5 |
| 20260903041403 | 56 | 0 | 0.0 | 0.0 | 0.00 | 0.00 | 0.00 | 83 | 1021.7 |
| 20260903041303 | 56 | 0 | 0.0 | 0.0 | 0.00 | 0.00 | 0.00 | 83 | 1021.5 |
| 20260903041204 | 56 | 0 | 0.0 | 0.0 | 0.00 | 0.00 | 0.00 | 83 | 1021.4 |
| 20260903041104 | 56 | 0 | 0.0 | 0.0 | 0.00 | 0.00 | 0.00 | 83 | 1021.5 |
| 20260903041003 | 56 | 0 | 0.0 | 0.0 | 0.00 | 0.00 | 0.00 | 83 | 1021.4 |
| 20260903040904 | 56 | 0 | 0.0 | 0.0 | 0.00 | 0.00 | 0.00 | 83 | 1021.5 |
| 20260903040804 | 56 | 0 | 0.0 | 0.0 | 0.00 | 0.00 | 0.00 | 83 | 1021.3 |
| 20260903040704 | 56 | 0 | 0.0 | 0.0 | 0.00 | 0.00 | 0.00 | 83 | 1021.3 |
| 20260903040604 | 56 | 0 | 0.0 | 0.0 | 0.00 | 0.00 | 0.00 | 83 | 1021.3 |
| 20260903040503 | 56 | 158 | 0.0 | 0.0 | 0.00 | 0.00 | 0.00 | 83 | 1021.2 |
| 20260903040404 | 56 | 158 | 0.0 | 0.0 | 0.00 | 0.00 | 0.00 | 83 | 1021.1 |
| 20260903040303 | 56 | 158 | 0.0 | 0.0 | 0.00 | 0.00 | 0.00 | 83 | 1021.1 |
| 20260903040204 | 56 | 158 | 0.0 | 0.0 | 0.00 | 0.00 | 0.00 | 83 | 1021.1 |
| 20260903040103 | 56 | 158 | 0.0 | 0.0 | 0.00 | 0.00 | 0.00 | 83 | 1021.2 |
| 20260903040008 | 56 | 158 | 0.0 | 0.0 | 0.00 | 0.00 | 0.00 | 83 | 1021.2 |
| 20260903035903 | 56 | 158 | 0.0 | 0.0 | 0.00 | 0.00 | 0.00 | 83 | 1021.1 |
| 20260903035804 | 56 | 145 | 0.0 | 0.0 | 0.00 | 0.00 | 0.00 | 83 | 1021.2 |
| 20260903035703 | 56 | 141 | 0.0 | 0.0 | 0.00 | 0.00 | 0.00 | 83 | 1021.2 |
| 20260903035603 | 56 | 141 | 0.0 | 0.0 | 0.00 | 0.00 | 0.00 | 83 | 1021.0 |
| 20260903035504 | 56 | 141 | 0.0 | 0.0 | 0.00 | 0.00 | 0.00 | 83 | 1021.0 |
| 20260903035405 | 56 | 135 | 0.0 | 0.0 | 0.00 | 0.00 | 0.00 | 83 | 1021.3 |
| 20260903035306 | 56 | 135 | 0.0 | 0.0 | 0.00 | 0.00 | 0.00 | 83 | 1021.2 |
| 20260903035204 | 56 | 135 | 0.0 | 0.0 | 0.00 | 0.00 | 0.00 | 83 | 1021.2 |
| 20260903035103 | 56 | 135 | 0.0 | 0.0 | 0.00 | 0.00 | 0.00 | 83 | 1021.2 |
| 20260903035003 | 56 | 135 | 0.0 | 0.0 | 0.00 | 0.00 | 0.00 | 83 | 1021.1 |
| 20260903034903 | 56 | 135 | 0.0 | 0.0 | 0.00 | 0.00 | 0.00 | 83 | 1021.1 |
| 20260903034804 | 56 | 135 | 0.0 | 0.0 | 0.00 | 0.00 | 0.00 | 83 | 1021.0 |
| 20260903034703 | 56 | 0 | 0.0 | 0.0 | 0.00 | 0.00 | 0.00 | 83 | 1021.1 |
| 20260903034604 | 56 | 0 | 0.0 | 0.0 | 0.00 | 0.00 | 0.00 | 83 | 1021.1 |
| 20260903034503 | 56 | 0 | 0.0 | 0.0 | 0.00 | 0.00 | 0.00 | 84 | 1021.2 |
| 20260903034404 | 56 | 0 | 0.0 | 0.0 | 0.00 | 0.00 | 0.00 | 84 | 1021.0 |
| 20260903034303 | 56 | 0 | 0.0 | 0.0 | 0.00 | 0.00 | 0.00 | 84 | 1020.9 |
| 20260903034204 | 56 | 0 | 0.0 | 0.0 | 0.00 | 0.00 | 0.00 | 84 | 1021.1 |
| 20260903034103 | 56 | 0 | 0.0 | 0.0 | 0.00 | 0.00 | 0.00 | 84 | 1021.1 |
| 20260903034004 | 56 | 135 | 0.0 | 0.0 | 0.00 | 0.00 | 0.00 | 84 | 1021.1 |
| 20260903033903 | 56 | 135 | 0.0 | 0.0 | 0.00 | 0.00 | 0.00 | 84 | 1021.2 |
| 20260903033804 | 56 | 154 | 0.0 | 0.0 | 0.00 | 0.00 | 0.00 | 84 | 1021.1 |
| 20260903033704 | 56 | 164 | 0.0 | 0.0 | 0.00 | 0.00 | 0.00 | 84 | 1021.1 |
| 20260903033603 | 56 | 164 | 0.0 | 0.0 | 0.00 | 0.00 | 0.00 | 84 | 1020.9 |
| 20260903033504 | 56 | 164 | 0.0 | 0.0 | 0.00 | 0.00 | 0.00 | 84 | 1021.2 |
| 20260903033403 | 56 | 164 | 0.0 | 0.0 | 0.00 | 0.00 | 0.00 | 84 | 1020.9 |
| 20260903033304 | 56 | 171 | 0.0 | 0.0 | 0.00 | 0.00 | 0.00 | 84 | 1021.3 |
| 20260903033205 | 56 | 182 | 0.0 | 0.0 | 0.00 | 0.00 | 0.00 | 84 | 1021.1 |
| 20260903033103 | 56 | 190 | 0.0 | 0.0 | 0.00 | 0.00 | 0.00 | 84 | 1021.2 |
| 20260903033003 | 56 | 196 | 0.0 | 0.0 | 0.00 | 0.00 | 0.00 | 84 | 1021.1 |
| 20260903032903 | 56 | 204 | 0.0 | 0.0 | 0.00 | 0.00 | 0.00 | 84 | 1021.1 |
| 20260903032803 | 56 | 208 | 0.0 | 0.0 | 0.00 | 0.00 | 0.00 | 84 | 1020.9 |
| 20260903032705 | 56 | 222 | 0.0 | 0.0 | 0.00 | 0.00 | 0.00 | 85 | 1021.1 |
| 20260903032603 | 56 | 222 | 0.0 | 0.0 | 0.00 | 0.00 | 0.00 | 85 | 1021.3 |
| 20260903032504 | 56 | 222 | 0.0 | 0.0 | 0.00 | 0.00 | 0.00 | 85 | 1021.0 |
| 20260903032403 | 56 | 222 | 0.0 | 0.0 | 0.00 | 0.00 | 0.00 | 85 | 1021.2 |
| 20260903032305 | 56 | 245 | 0.0 | 0.0 | 0.00 | 0.00 | 0.00 | 85 | 1021.2 |
| 20260903032204 | 56 | 225 | 0.0 | 0.0 | 0.00 | 0.00 | 0.00 | 85 | 1021.1 |
| 20260903032103 | 56 | 225 | 0.0 | 0.0 | 0.00 | 0.00 | 0.00 | 85 | 1021.2 |
| 20260903032005 | 56 | 135 | 0.0 | 0.0 | 0.00 | 0.00 | 0.00 | 85 | 1021.2 |
| 20260903031903 | 56 | 135 | 0.0 | 0.0 | 0.00 | 0.00 | 0.00 | 85 | 1021.1 |
| 20260903031803 | 56 | 135 | 0.0 | 0.0 | 0.00 | 0.00 | 0.00 | 85 | 1021.1 |
| 20260903031704 | 56 | 135 | 0.0 | 0.0 | 0.00 | 0.00 | 0.00 | 85 | 1021.0 |
| 20260903031603 | 56 | 135 | 0.0 | 0.0 | 0.00 | 0.00 | 0.00 | 85 | 1021.2 |
| 20260903031504 | 56 | 135 | 0.0 | 0.0 | 0.00 | 0.00 | 0.00 | 85 | 1021.0 |
| 20260903031403 | 56 | 135 | 0.0 | 0.0 | 0.00 | 0.00 | 0.00 | 85 | 1021.0 |
| 20260903031304 | 56 | 135 | 0.0 | 0.0 | 0.00 | 0.00 | 0.00 | 85 | 1021.1 |
| 20260903031203 | 56 | 135 | 0.0 | 0.0 | 0.00 | 0.00 | 0.00 | 85 | 1021.0 |
| 20260903031104 | 56 | 135 | 0.0 | 0.0 | 0.00 | 0.00 | 0.00 | 85 | 1021.0 |
| 20260903031003 | 56 | 135 | 0.0 | 0.0 | 0.00 | 0.00 | 0.00 | 85 | 1020.9 |
| 20260903030904 | 56 | 135 | 0.0 | 0.0 | 0.00 | 0.00 | 0.00 | 85 | 1021.0 |
| 20260903030804 | 56 | 0 | 0.0 | 0.0 | 0.00 | 0.00 | 0.00 | 85 | 1021.0 |
| 20260903030703 | 56 | 0 | 0.0 | 0.0 | 0.00 | 0.00 | 0.00 | 85 | 1020.8 |
| 20260903030604 | 56 | 0 | 0.0 | 0.0 | 0.00 | 0.00 | 0.00 | 85 | 1021.0 |
| 20260903030503 | 56 | 0 | 0.0 | 0.0 | 0.00 | 0.00 | 0.00 | 85 | 1020.8 |
| 20260903030404 | 56 | 0 | 0.0 | 0.0 | 0.00 | 0.00 | 0.00 | 85 | 1021.0 |
| 20260903030303 | 56 | 0 | 0.0 | 0.0 | 0.00 | 0.00 | 0.00 | 85 | 1020.9 |
| 20260903030204 | 56 | 0 | 0.0 | 0.0 | 0.00 | 0.00 | 0.00 | 85 | 1020.7 |
| 20260903030104 | 56 | 0 | 0.0 | 0.0 | 0.00 | 0.00 | 0.00 | 85 | 1021.0 |
| 20260903030005 | 56 | 0 | 0.0 | 0.0 | 0.00 | 0.00 | 0.00 | 85 | 1020.8 |
| 20260903025903 | 56 | 0 | 0.0 | 0.0 | 0.00 | 0.00 | 0.00 | 85 | 1020.8 |
| 20260903025803 | 56 | 0 | 0.0 | 0.0 | 0.00 | 0.00 | 0.00 | 85 | 1020.9 |
| 20260903025703 | 56 | 0 | 0.0 | 0.0 | 0.00 | 0.00 | 0.00 | 85 | 1020.9 |
| 20260903025604 | 56 | 0 | 0.0 | 0.0 | 0.00 | 0.00 | 0.00 | 85 | 1020.8 |
| 20260903025503 | 56 | 0 | 0.0 | 0.0 | 0.00 | 0.00 | 0.00 | 85 | 1020.6 |
| 20260903025402 | 57 | 0 | 0.0 | 0.0 | 0.00 | 0.00 | 0.00 | 85 | 1020.8 |
| 20260903025306 | 57 | 0 | 0.0 | 0.0 | 0.00 | 0.00 | 0.00 | 85 | 1020.8 |
| 20260903025204 | 57 | 0 | 0.0 | 0.0 | 0.00 | 0.00 | 0.00 | 85 | 1020.6 |
| 20260903025103 | 57 | 0 | 0.0 | 0.0 | 0.00 | 0.00 | 0.00 | 85 | 1020.8 |
| 20260903025004 | 57 | 0 | 0.0 | 0.0 | 0.00 | 0.00 | 0.00 | 85 | 1020.9 |
| 20260903024903 | 57 | 0 | 0.0 | 0.0 | 0.00 | 0.00 | 0.00 | 86 | 1020.8 |
| 20260903024804 | 57 | 0 | 0.0 | 0.0 | 0.00 | 0.00 | 0.00 | 86 | 1020.8 |
| 20260903024704 | 57 | 0 | 0.0 | 0.0 | 0.00 | 0.00 | 0.00 | 86 | 1020.9 |
| 20260903024604 | 57 | 0 | 0.0 | 0.0 | 0.00 | 0.00 | 0.00 | 86 | 1021.0 |
| 20260903024503 | 57 | 0 | 0.0 | 0.0 | 0.00 | 0.00 | 0.00 | 86 | 1020.8 |
| 20260903024404 | 57 | 0 | 0.0 | 0.0 | 0.00 | 0.00 | 0.00 | 86 | 1020.9 |
| 20260903024303 | 57 | 0 | 0.0 | 0.0 | 0.00 | 0.00 | 0.00 | 86 | 1021.0 |
| 20260903024204 | 57 | 0 | 0.0 | 0.0 | 0.00 | 0.00 | 0.00 | 86 | 1020.9 |
| 20260903024103 | 57 | 0 | 0.0 | 0.0 | 0.00 | 0.00 | 0.00 | 86 | 1021.0 |
| 20260903024002 | 57 | 0 | 0.0 | 0.0 | 0.00 | 0.00 | 0.00 | 86 | 1020.9 |
| 20260903023904 | 57 | 0 | 0.0 | 0.0 | 0.00 | 0.00 | 0.00 | 86 | 1021.1 |
| 20260903023803 | 57 | 0 | 0.0 | 0.0 | 0.00 | 0.00 | 0.00 | 86 | 1021.0 |
| 20260903023704 | 57 | 0 | 0.0 | 0.0 | 0.00 | 0.00 | 0.00 | 87 | 1020.9 |
| 20260903023603 | 57 | 0 | 0.0 | 0.0 | 0.00 | 0.00 | 0.00 | 87 | 1020.9 |
| 20260903023503 | 57 | 0 | 0.0 | 0.0 | 0.00 | 0.00 | 0.00 | 87 | 1020.9 |
| 20260903023404 | 57 | 0 | 0.0 | 0.0 | 0.00 | 0.00 | 0.00 | 87 | 1020.9 |